Observation data for Odell on 02/13/2018      Previous  Date  Next       Current Mesonet Observations  Soil Data  Daily Summary Page  Observations in Plain Language
KOD1 130600Z 12007KT 01/M05 A3037 RMK A01 T00061048  RH  067%=      5-min Rain = 0
KOD1 130601Z 12007KT 01/M05 A3037 RMK A01 T00051048  RH  067%=      5-min Rain = 0
KOD1 130602Z 11008KT 01/M05 A3037 RMK A01 T00051048  RH  068%=      5-min Rain = 0
KOD1 130603Z 11008KT 01/M05 A3037 RMK A01 T00051047  RH  068%=      5-min Rain = 0
KOD1 130604Z 11008KT 01/M05 A3037 RMK A01 T00051048  RH  068%=      5-min Rain = 0
KOD1 130605Z 12008KT 01/M05 A3037 RMK A01 T00051048  RH  068%=      5-min Rain = 0
KOD1 130606Z 11008KT 01/M05 A3037 RMK A01 T00051048  RH  068%=      5-min Rain = 0
KOD1 130607Z 11008KT 00/M05 A3037 RMK A01 T00041048  RH  068%=      5-min Rain = 0
KOD1 130608Z 12008KT 00/M05 A3037 RMK A01 T00041048  RH  068%=      5-min Rain = 0
KOD1 130609Z 12008KT 00/M05 A3037 RMK A01 T00041048  RH  068%=      5-min Rain = 0
KOD1 130610Z 12007KT 00/M05 A3037 RMK A01 T00041048  RH  068%=      5-min Rain = 0
KOD1 130611Z 12008KT 00/M05 A3037 RMK A01 T00041048  RH  068%=      5-min Rain = 0
KOD1 130612Z 12008KT 00/M05 A3037 RMK A01 T00041047  RH  068%=      5-min Rain = 0
KOD1 130613Z 12009KT 01/M05 A3037 RMK A01 T00051047  RH  068%=      5-min Rain = 0
KOD1 130614Z 12008KT 01/M05 A3037 RMK A01 T00051047  RH  068%=      5-min Rain = 0
KOD1 130615Z 12009KT 01/M05 A3037 RMK A01 T00051047  RH  068%=      5-min Rain = 0
KOD1 130616Z 12008KT 01/M05 A3037 RMK A01 T00051047  RH  068%=      5-min Rain = 0
KOD1 130617Z 12009KT 01/M05 A3037 RMK A01 T00051047  RH  068%=      5-min Rain = 0
KOD1 130618Z 12008KT 01/M05 A3037 RMK A01 T00051047  RH  068%=      5-min Rain = 0
KOD1 130619Z 12009KT 01/M05 A3037 RMK A01 T00051047  RH  068%=      5-min Rain = 0
KOD1 130620Z 11008KT 01/M05 A3037 RMK A01 T00051047  RH  068%=      5-min Rain = 0
KOD1 130621Z 12009KT 01/M05 A3037 RMK A01 T00051047  RH  068%=      5-min Rain = 0
KOD1 130622Z 11007KT 01/M05 A3037 RMK A01 T00051047  RH  068%=      5-min Rain = 0
KOD1 130623Z 11008KT 01/M05 A3037 RMK A01 T00051047  RH  068%=      5-min Rain = 0
KOD1 130624Z 11008KT 01/M05 A3037 RMK A01 T00051047  RH  068%=      5-min Rain = 0
KOD1 130625Z 11008KT 01/M05 A3037 RMK A01 T00051047  RH  068%=      5-min Rain = 0
KOD1 130626Z 11008KT 01/M05 A3037 RMK A01 T00051046  RH  068%=      5-min Rain = 0
KOD1 130627Z 11008KT 01/M05 A3037 RMK A01 T00061046  RH  068%=      5-min Rain = 0
KOD1 130628Z 11008KT 01/M05 A3037 RMK A01 T00061046  RH  068%=      5-min Rain = 0
KOD1 130629Z 11008KT 01/M05 A3037 RMK A01 T00061046  RH  068%=      5-min Rain = 0
KOD1 130630Z 11007KT 01/M05 A3037 RMK A01 T00061046  RH  068%=      5-min Rain = 0
KOD1 130631Z 11007KT 01/M05 A3037 RMK A01 T00061046  RH  068%=      5-min Rain = 0
KOD1 130632Z 11008KT 01/M05 A3037 RMK A01 T00071045  RH  068%=      5-min Rain = 0
KOD1 130633Z 11008KT 01/M05 A3037 RMK A01 T00071046  RH  068%=      5-min Rain = 0
KOD1 130634Z 11008KT 01/M05 A3037 RMK A01 T00081046  RH  068%=      5-min Rain = 0
KOD1 130635Z 11008KT 01/M05 A3037 RMK A01 T00081046  RH  067%=      5-min Rain = 0
KOD1 130636Z 11007KT 01/M05 A3037 RMK A01 T00081046  RH  067%=      5-min Rain = 0
KOD1 130637Z 11006KT 01/M05 A3037 RMK A01 T00081046  RH  067%=      5-min Rain = 0
KOD1 130638Z 11005KT 01/M05 A3037 RMK A01 T00081046  RH  067%=      5-min Rain = 0
KOD1 130639Z 11007KT 01/M05 A3037 RMK A01 T00081046  RH  067%=      5-min Rain = 0
KOD1 130640Z 12007KT 01/M05 A3037 RMK A01 T00081046  RH  067%=      5-min Rain = 0
KOD1 130641Z 12007KT 01/M05 A3037 RMK A01 T00081046  RH  067%=      5-min Rain = 0
KOD1 130642Z 11007KT 01/M05 A3037 RMK A01 T00081045  RH  067%=      5-min Rain = 0
KOD1 130643Z 12006KT 01/M05 A3037 RMK A01 T00081045  RH  067%=      5-min Rain = 0
KOD1 130644Z 12008KT 01/M05 A3037 RMK A01 T00091045  RH  067%=      5-min Rain = 0
KOD1 130645Z 12008KT 01/M05 A3037 RMK A01 T00091045  RH  067%=      5-min Rain = 0
KOD1 130646Z 11008KT 01/M05 A3037 RMK A01 T00091045  RH  067%=      5-min Rain = 0
KOD1 130647Z 11008KT 01/M05 A3037 RMK A01 T00101045  RH  067%=      5-min Rain = 0
KOD1 130648Z 12007KT 01/M05 A3037 RMK A01 T00101045  RH  067%=      5-min Rain = 0
KOD1 130649Z 11007KT 01/M05 A3037 RMK A01 T00101045  RH  067%=      5-min Rain = 0
KOD1 130650Z 11008KT 01/M05 A3037 RMK A01 T00101045  RH  067%=      5-min Rain = 0
KOD1 130651Z 11008KT 01/M04 A3037 RMK A01 T00101044  RH  067%=      5-min Rain = 0
KOD1 130652Z 11007KT 01/M04 A3037 RMK A01 T00101044  RH  067%=      5-min Rain = 0
KOD1 130653Z 11007KT 01/M04 A3037 RMK A01 T00111044  RH  067%=      5-min Rain = 0
KOD1 130654Z 11005KT 01/M04 A3037 RMK A01 T00111044  RH  067%=      5-min Rain = 0
KOD1 130655Z 11005KT 01/M04 A3037 RMK A01 T00111044  RH  067%=      5-min Rain = 0
KOD1 130656Z 10006KT 01/M04 A3037 RMK A01 T00111044  RH  067%=      5-min Rain = 0
KOD1 130657Z 11006KT 01/M04 A3037 RMK A01 T00111044  RH  067%=      5-min Rain = 0
KOD1 130658Z 11007KT 01/M04 A3037 RMK A01 T00111044  RH  067%=      5-min Rain = 0
KOD1 130659Z 11006KT 01/M04 A3037 RMK A01 T00121043  RH  067%=      5-min Rain = 0
KOD1 130700Z 11007KT 01/M04 A3037 RMK A01 T00121043  RH  067%=      5-min Rain = 0
KOD1 130701Z 11006KT 01/M04 A3037 RMK A01 T00131043  RH  066%=      5-min Rain = 0
KOD1 130702Z 11006KT 01/M04 A3037 RMK A01 T00131043  RH  066%=      5-min Rain = 0
KOD1 130703Z 11008KT 01/M04 A3037 RMK A01 T00141042  RH  066%=      5-min Rain = 0
KOD1 130704Z 11008KT 01/M04 A3037 RMK A01 T00141042  RH  066%=      5-min Rain = 0
KOD1 130705Z 11008KT 02/M04 A3037 RMK A01 T00151042  RH  066%=      5-min Rain = 0
KOD1 130706Z 11007KT 02/M04 A3037 RMK A01 T00151043  RH  066%=      5-min Rain = 0
KOD1 130707Z 11006KT 02/M04 A3037 RMK A01 T00151043  RH  066%=      5-min Rain = 0
KOD1 130708Z 11007KT 02/M04 A3037 RMK A01 T00151043  RH  066%=      5-min Rain = 0
KOD1 130709Z 11007KT 02/M04 A3037 RMK A01 T00151043  RH  066%=      5-min Rain = 0
KOD1 130710Z 11007KT 02/M04 A3037 RMK A01 T00151042  RH  066%=      5-min Rain = 0
KOD1 130711Z 10007KT 02/M04 A3037 RMK A01 T00151042  RH  066%=      5-min Rain = 0
KOD1 130712Z 10006KT 02/M04 A3037 RMK A01 T00151042  RH  065%=      5-min Rain = 0
KOD1 130713Z 10007KT 02/M04 A3037 RMK A01 T00151043  RH  065%=      5-min Rain = 0
KOD1 130714Z 11007KT 02/M04 A3037 RMK A01 T00151043  RH  065%=      5-min Rain = 0
KOD1 130715Z 11007KT 01/M04 A3037 RMK A01 T00141043  RH  066%=      5-min Rain = 0
KOD1 130716Z 11007KT 01/M04 A3037 RMK A01 T00141043  RH  065%=      5-min Rain = 0
KOD1 130717Z 11006KT 01/M04 A3037 RMK A01 T00141044  RH  065%=      5-min Rain = 0
KOD1 130718Z 11007KT 01/M04 A3037 RMK A01 T00131044  RH  066%=      5-min Rain = 0
KOD1 130719Z 11007KT 01/M04 A3037 RMK A01 T00121044  RH  066%=      5-min Rain = 0
KOD1 130720Z 10007KT 01/M05 A3037 RMK A01 T00121045  RH  066%=      5-min Rain = 0
KOD1 130721Z 10007KT 01/M05 A3037 RMK A01 T00111045  RH  066%=      5-min Rain = 0
KOD1 130722Z 10006KT 01/M05 A3037 RMK A01 T00111045  RH  066%=      5-min Rain = 0
KOD1 130723Z 10006KT 01/M05 A3037 RMK A01 T00101045  RH  066%=      5-min Rain = 0
KOD1 130724Z 10006KT 01/M05 A3037 RMK A01 T00091046  RH  067%=      5-min Rain = 0
KOD1 130725Z 11006KT 01/M05 A3037 RMK A01 T00091046  RH  067%=      5-min Rain = 0
KOD1 130726Z 11006KT 01/M05 A3037 RMK A01 T00081046  RH  067%=      5-min Rain = 0
KOD1 130727Z 10006KT 01/M05 A3037 RMK A01 T00081046  RH  067%=      5-min Rain = 0
KOD1 130728Z 10006KT 01/M05 A3036 RMK A01 T00071046  RH  068%=      5-min Rain = 0
KOD1 130729Z 10007KT 01/M05 A3036 RMK A01 T00071045  RH  068%=      5-min Rain = 0
KOD1 130730Z 10006KT 01/M05 A3036 RMK A01 T00071045  RH  068%=      5-min Rain = 0
KOD1 130731Z 10006KT 01/M05 A3036 RMK A01 T00071046  RH  068%=      5-min Rain = 0
KOD1 130732Z 10006KT 01/M05 A3036 RMK A01 T00061046  RH  068%=      5-min Rain = 0
KOD1 130733Z 10006KT 01/M05 A3036 RMK A01 T00061046  RH  068%=      5-min Rain = 0
KOD1 130734Z 10005KT 01/M05 A3036 RMK A01 T00051046  RH  068%=      5-min Rain = 0
KOD1 130735Z 10006KT 01/M05 A3036 RMK A01 T00051047  RH  068%=      5-min Rain = 0
KOD1 130736Z 10006KT 00/M05 A3036 RMK A01 T00041046  RH  069%=      5-min Rain = 0
KOD1 130737Z 10005KT 00/M05 A3036 RMK A01 T00041047  RH  069%=      5-min Rain = 0
KOD1 130738Z 10006KT 00/M05 A3036 RMK A01 T00041047  RH  069%=      5-min Rain = 0
KOD1 130739Z 10006KT 00/M05 A3036 RMK A01 T00031047  RH  069%=      5-min Rain = 0
KOD1 130740Z 10005KT 00/M05 A3036 RMK A01 T00031047  RH  069%=      5-min Rain = 0
KOD1 130741Z 10006KT 00/M05 A3036 RMK A01 T00031047  RH  069%=      5-min Rain = 0
KOD1 130742Z 10006KT 00/M05 A3036 RMK A01 T00021047  RH  069%=      5-min Rain = 0
KOD1 130743Z 10006KT 00/M05 A3036 RMK A01 T00021046  RH  070%=      5-min Rain = 0
KOD1 130744Z 10005KT 00/M05 A3036 RMK A01 T00021047  RH  070%=      5-min Rain = 0
KOD1 130745Z 10005KT 00/M05 A3036 RMK A01 T00021048  RH  069%=      5-min Rain = 0
KOD1 130746Z 10005KT 00/M05 A3036 RMK A01 T00011048  RH  070%=      5-min Rain = 0
KOD1 130747Z 10005KT 00/M05 A3036 RMK A01 T00011048  RH  070%=      5-min Rain = 0
KOD1 130748Z 10005KT 00/M05 A3036 RMK A01 T00011048  RH  070%=      5-min Rain = 0
KOD1 130749Z 10005KT 00/05 A3036 RMK A01 T00000-48  RH  070%=      5-min Rain = 0
KOD1 130750Z 10005KT 00/05 A3036 RMK A01 T00000-48  RH  070%=      5-min Rain = 0
KOD1 130751Z 10006KT 00/05 A3036 RMK A01 T00-00-47  RH  071%=      5-min Rain = 0
KOD1 130752Z 10006KT 00/05 A3036 RMK A01 T00-00-47  RH  071%=      5-min Rain = 0
KOD1 130753Z 10006KT 00/05 A3036 RMK A01 T00-00-47  RH  071%=      5-min Rain = 0
KOD1 130754Z 10005KT M00/M05 A3035 RMK A01 T10011048  RH  071%=      5-min Rain = 0
KOD1 130755Z 10006KT M00/M05 A3035 RMK A01 T10011048  RH  071%=      5-min Rain = 0
KOD1 130756Z 11006KT M00/M05 A3035 RMK A01 T10011047  RH  071%=      5-min Rain = 0
KOD1 130757Z 10006KT M00/M05 A3035 RMK A01 T10011048  RH  071%=      5-min Rain = 0
KOD1 130758Z 11006KT M00/M05 A3035 RMK A01 T10021048  RH  071%=      5-min Rain = 0
KOD1 130759Z 11007KT M00/M05 A3035 RMK A01 T10021048  RH  071%=      5-min Rain = 0
KOD1 130800Z 11007KT M00/M05 A3035 RMK A01 T10021048  RH  072%=      5-min Rain = 0
KOD1 130801Z 11007KT M00/M05 A3035 RMK A01 T10021047  RH  072%=      5-min Rain = 0
KOD1 130802Z 11006KT M00/M05 A3035 RMK A01 T10021048  RH  071%=      5-min Rain = 0
KOD1 130803Z 11007KT M00/M05 A3035 RMK A01 T10031048  RH  072%=      5-min Rain = 0
KOD1 130804Z 11007KT M00/M05 A3035 RMK A01 T10031048  RH  072%=      5-min Rain = 0
KOD1 130805Z 11007KT M00/M05 A3035 RMK A01 T10031047  RH  072%=      5-min Rain = 0
KOD1 130806Z 11006KT M00/M05 A3035 RMK A01 T10031048  RH  072%=      5-min Rain = 0
KOD1 130807Z 11006KT M00/M05 A3035 RMK A01 T10021047  RH  072%=      5-min Rain = 0
KOD1 130808Z 10006KT M00/M05 A3035 RMK A01 T10021047  RH  072%=      5-min Rain = 0
KOD1 130809Z 10006KT M00/M05 A3035 RMK A01 T10021047  RH  072%=      5-min Rain = 0
KOD1 130810Z 10006KT M00/M05 A3035 RMK A01 T10031047  RH  072%=      5-min Rain = 0
KOD1 130811Z 10006KT M00/M05 A3035 RMK A01 T10031047  RH  072%=      5-min Rain = 0
KOD1 130812Z 10006KT M00/M05 A3035 RMK A01 T10031048  RH  072%=      5-min Rain = 0
KOD1 130813Z 10006KT M00/M05 A3035 RMK A01 T10031047  RH  072%=      5-min Rain = 0
KOD1 130814Z 10006KT M00/M05 A3035 RMK A01 T10031047  RH  072%=      5-min Rain = 0
KOD1 130815Z 10006KT M00/M05 A3035 RMK A01 T10031048  RH  072%=      5-min Rain = 0
KOD1 130816Z 10006KT M00/M05 A3035 RMK A01 T10031048  RH  072%=      5-min Rain = 0
KOD1 130817Z 10006KT M00/M05 A3035 RMK A01 T10041048  RH  072%=      5-min Rain = 0
KOD1 130818Z 10007KT M00/M05 A3035 RMK A01 T10041048  RH  072%=      5-min Rain = 0
KOD1 130819Z 10007KT M00/M05 A3035 RMK A01 T10041048  RH  072%=      5-min Rain = 0
KOD1 130820Z 10007KT M00/M05 A3035 RMK A01 T10041048  RH  072%=      5-min Rain = 0
KOD1 130821Z 10007KT M00/M05 A3035 RMK A01 T10041047  RH  073%=      5-min Rain = 0
KOD1 130822Z 10007KT M00/M05 A3035 RMK A01 T10041047  RH  072%=      5-min Rain = 0
KOD1 130823Z 10008KT M00/M05 A3035 RMK A01 T10041047  RH  072%=      5-min Rain = 0
KOD1 130824Z 10008KT M00/M05 A3035 RMK A01 T10041047  RH  072%=      5-min Rain = 0
KOD1 130825Z 10007KT M00/M05 A3035 RMK A01 T10041047  RH  072%=      5-min Rain = 0
KOD1 130826Z 10006KT M00/M05 A3035 RMK A01 T10041047  RH  072%=      5-min Rain = 0
KOD1 130827Z 10007KT M00/M05 A3035 RMK A01 T10041048  RH  072%=      5-min Rain = 0
KOD1 130828Z 10008KT M00/M05 A3035 RMK A01 T10041047  RH  073%=      5-min Rain = 0
KOD1 130829Z 10008KT M00/M05 A3035 RMK A01 T10041047  RH  073%=      5-min Rain = 0
KOD1 130830Z 10007KT M00/M05 A3035 RMK A01 T10041047  RH  073%=      5-min Rain = 0
KOD1 130831Z 11007KT M00/M05 A3035 RMK A01 T10041048  RH  072%=      5-min Rain = 0
KOD1 130832Z 11007KT M01/M05 A3035 RMK A01 T10051048  RH  072%=      5-min Rain = 0
KOD1 130833Z 11007KT M01/M05 A3035 RMK A01 T10051048  RH  073%=      5-min Rain = 0
KOD1 130834Z 11007KT M01/M05 A3035 RMK A01 T10051048  RH  073%=      5-min Rain = 0
KOD1 130835Z 11007KT M01/M05 A3035 RMK A01 T10061048  RH  073%=      5-min Rain = 0
KOD1 130836Z 11006KT M01/M05 A3035 RMK A01 T10061048  RH  073%=      5-min Rain = 0
KOD1 130837Z 11006KT M01/M05 A3035 RMK A01 T10061049  RH  073%=      5-min Rain = 0
KOD1 130838Z 11006KT M01/M05 A3035 RMK A01 T10071049  RH  073%=      5-min Rain = 0
KOD1 130839Z 11007KT M01/M05 A3035 RMK A01 T10071048  RH  074%=      5-min Rain = 0
KOD1 130840Z 11007KT M01/M05 A3035 RMK A01 T10071048  RH  074%=      5-min Rain = 0
KOD1 130841Z 11006KT M01/M05 A3034 RMK A01 T10071048  RH  074%=      5-min Rain = 0
KOD1 130842Z 11006KT M01/M05 A3034 RMK A01 T10071049  RH  073%=      5-min Rain = 0
KOD1 130843Z 11006KT M01/M05 A3035 RMK A01 T10081049  RH  074%=      5-min Rain = 0
KOD1 130844Z 11006KT M01/M05 A3035 RMK A01 T10081049  RH  074%=      5-min Rain = 0
KOD1 130845Z 11005KT M01/M05 A3035 RMK A01 T10081049  RH  074%=      5-min Rain = 0
KOD1 130846Z 10005KT M01/M05 A3035 RMK A01 T10081049  RH  074%=      5-min Rain = 0
KOD1 130847Z 10004KT M01/M05 A3035 RMK A01 T10091050  RH  074%=      5-min Rain = 0
KOD1 130848Z 09004KT M01/M05 A3035 RMK A01 T10091051  RH  074%=      5-min Rain = 0
KOD1 130849Z 09004KT M01/M05 A3035 RMK A01 T10101051  RH  074%=      5-min Rain = 0
KOD1 130850Z 08003KT M01/M05 A3035 RMK A01 T10111053  RH  073%=      5-min Rain = 0
KOD1 130851Z 08003KT M01/M05 A3035 RMK A01 T10121054  RH  073%=      5-min Rain = 0
KOD1 130852Z 08004KT M01/M06 A3035 RMK A01 T10141056  RH  073%=      5-min Rain = 0
KOD1 130853Z 08004KT M02/M06 A3035 RMK A01 T10161056  RH  074%=      5-min Rain = 0
KOD1 130854Z 08005KT M02/M06 A3035 RMK A01 T10171056  RH  075%=      5-min Rain = 0
KOD1 130855Z 08005KT M02/M06 A3035 RMK A01 T10171055  RH  075%=      5-min Rain = 0
KOD1 130856Z 08005KT M02/M06 A3035 RMK A01 T10181055  RH  076%=      5-min Rain = 0
KOD1 130857Z 08005KT M02/M05 A3035 RMK A01 T10181054  RH  076%=      5-min Rain = 0
KOD1 130858Z 08005KT M02/M05 A3035 RMK A01 T10181053  RH  077%=      5-min Rain = 0
KOD1 130859Z 08005KT M02/M05 A3035 RMK A01 T10181053  RH  077%=      5-min Rain = 0
KOD1 130900Z 08005KT M02/M05 A3035 RMK A01 T10181053  RH  077%=      5-min Rain = 0
KOD1 130901Z 08005KT M02/M05 A3035 RMK A01 T10181054  RH  077%=      5-min Rain = 0
KOD1 130902Z 08005KT M02/M06 A3035 RMK A01 T10191057  RH  075%=      5-min Rain = 0
KOD1 130903Z 08005KT M02/M06 A3035 RMK A01 T10211060  RH  075%=      5-min Rain = 0
KOD1 130904Z 08004KT M02/M06 A3034 RMK A01 T10241062  RH  075%=      5-min Rain = 0
KOD1 130905Z 08004KT M03/M06 A3034 RMK A01 T10261063  RH  076%=      5-min Rain = 0
KOD1 130906Z 07004KT M03/M06 A3034 RMK A01 T10281064  RH  076%=      5-min Rain = 0
KOD1 130907Z 06004KT M03/M07 A3034 RMK A01 T10301066  RH  077%=      5-min Rain = 0
KOD1 130908Z 06005KT M03/M07 A3034 RMK A01 T10331067  RH  077%=      5-min Rain = 0
KOD1 130909Z 06005KT M04/M07 A3034 RMK A01 T10351068  RH  078%=      5-min Rain = 0
KOD1 130910Z 06005KT M04/M07 A3034 RMK A01 T10361068  RH  079%=      5-min Rain = 0
KOD1 130911Z 06005KT M04/M07 A3034 RMK A01 T10371067  RH  080%=      5-min Rain = 0
KOD1 130912Z 06006KT M04/M07 A3034 RMK A01 T10381067  RH  080%=      5-min Rain = 0
KOD1 130913Z 06006KT M04/M07 A3034 RMK A01 T10391067  RH  081%=      5-min Rain = 0
KOD1 130914Z 07006KT M04/M07 A3035 RMK A01 T10401068  RH  081%=      5-min Rain = 0
KOD1 130915Z 06005KT M04/M07 A3035 RMK A01 T10401066  RH  082%=      5-min Rain = 0
KOD1 130916Z 06005KT M04/M07 A3035 RMK A01 T10401065  RH  082%=      5-min Rain = 0
KOD1 130917Z 07005KT M04/M06 A3035 RMK A01 T10401064  RH  083%=      5-min Rain = 0
KOD1 130918Z 07005KT M04/M06 A3035 RMK A01 T10391062  RH  084%=      5-min Rain = 0
KOD1 130919Z 07005KT M04/M06 A3035 RMK A01 T10381062  RH  084%=      5-min Rain = 0
KOD1 130920Z 07005KT M04/M06 A3035 RMK A01 T10371061  RH  084%=      5-min Rain = 0
KOD1 130921Z 08005KT M04/M06 A3035 RMK A01 T10361060  RH  084%=      5-min Rain = 0
KOD1 130922Z 08006KT M04/M06 A3035 RMK A01 T10351057  RH  084%=      5-min Rain = 0
KOD1 130923Z 08006KT M03/M06 A3035 RMK A01 T10331056  RH  084%=      5-min Rain = 0
KOD1 130924Z 08006KT M03/M06 A3035 RMK A01 T10311055  RH  084%=      5-min Rain = 0
KOD1 130925Z 08006KT M03/M05 A3035 RMK A01 T10301054  RH  083%=      5-min Rain = 0
KOD1 130926Z 09006KT M03/M05 A3035 RMK A01 T10291054  RH  083%=      5-min Rain = 0
KOD1 130927Z 09006KT M03/M05 A3034 RMK A01 T10281054  RH  082%=      5-min Rain = 0
KOD1 130928Z 09007KT M03/M05 A3034 RMK A01 T10281054  RH  082%=      5-min Rain = 0
KOD1 130929Z 09007KT M03/M06 A3034 RMK A01 T10281055  RH  082%=      5-min Rain = 0
KOD1 130930Z 09007KT M03/M05 A3034 RMK A01 T10271054  RH  082%=      5-min Rain = 0
KOD1 130931Z 09007KT M03/M05 A3034 RMK A01 T10271054  RH  082%=      5-min Rain = 0
KOD1 130932Z 09007KT M03/M05 A3034 RMK A01 T10271054  RH  081%=      5-min Rain = 0
KOD1 130933Z 09007KT M03/M05 A3035 RMK A01 T10271054  RH  081%=      5-min Rain = 0
KOD1 130934Z 09006KT M03/M05 A3035 RMK A01 T10261054  RH  081%=      5-min Rain = 0
KOD1 130935Z 09006KT M03/M05 A3035 RMK A01 T10261053  RH  081%=      5-min Rain = 0
KOD1 130936Z 09006KT M03/M05 A3035 RMK A01 T10251053  RH  081%=      5-min Rain = 0
KOD1 130937Z 09005KT M03/M05 A3035 RMK A01 T10251053  RH  081%=      5-min Rain = 0
KOD1 130938Z 09005KT M03/M05 A3035 RMK A01 T10251053  RH  081%=      5-min Rain = 0
KOD1 130939Z 09005KT M03/M05 A3035 RMK A01 T10251053  RH  081%=      5-min Rain = 0
KOD1 130940Z 09004KT M03/M05 A3035 RMK A01 T10251053  RH  081%=      5-min Rain = 0
KOD1 130941Z 10004KT M03/M05 A3035 RMK A01 T10251053  RH  081%=      5-min Rain = 0
KOD1 130942Z 10004KT M03/M05 A3035 RMK A01 T10251054  RH  081%=      5-min Rain = 0
KOD1 130943Z 10004KT M03/M05 A3035 RMK A01 T10251054  RH  080%=      5-min Rain = 0
KOD1 130944Z 10004KT M03/M05 A3035 RMK A01 T10251054  RH  081%=      5-min Rain = 0
KOD1 130945Z 10005KT M03/M06 A3035 RMK A01 T10261055  RH  080%=      5-min Rain = 0
KOD1 130946Z 10005KT M03/M06 A3035 RMK A01 T10261055  RH  080%=      5-min Rain = 0
KOD1 130947Z 10005KT M03/M06 A3035 RMK A01 T10261056  RH  080%=      5-min Rain = 0
KOD1 130948Z 10005KT M03/M06 A3035 RMK A01 T10271056  RH  080%=      5-min Rain = 0
KOD1 130949Z 11005KT M03/M06 A3035 RMK A01 T10271057  RH  080%=      5-min Rain = 0
KOD1 130950Z 11005KT M03/M06 A3035 RMK A01 T10281057  RH  081%=      5-min Rain = 0
KOD1 130951Z 11005KT M03/M06 A3035 RMK A01 T10281057  RH  081%=      5-min Rain = 0
KOD1 130952Z 11005KT M03/M06 A3035 RMK A01 T10291057  RH  081%=      5-min Rain = 0
KOD1 130953Z 12005KT M03/M06 A3035 RMK A01 T10291057  RH  081%=      5-min Rain = 0
KOD1 130954Z 12005KT M03/M06 A3035 RMK A01 T10291058  RH  081%=      5-min Rain = 0
KOD1 130955Z 12005KT M03/M06 A3035 RMK A01 T10301058  RH  081%=      5-min Rain = 0
KOD1 130956Z 12005KT M03/M06 A3035 RMK A01 T10301058  RH  081%=      5-min Rain = 0
KOD1 130957Z 12006KT M03/M06 A3035 RMK A01 T10301058  RH  081%=      5-min Rain = 0
KOD1 130958Z 12006KT M03/M06 A3035 RMK A01 T10301056  RH  082%=      5-min Rain = 0
KOD1 130959Z 12006KT M03/M06 A3035 RMK A01 T10291055  RH  082%=      5-min Rain = 0
KOD1 131000Z 12006KT M03/M05 A3035 RMK A01 T10281053  RH  083%=      5-min Rain = 0
KOD1 131001Z 12006KT M03/M05 A3035 RMK A01 T10271052  RH  083%=      5-min Rain = 0
KOD1 131002Z 12006KT M03/M05 A3035 RMK A01 T10261051  RH  083%=      5-min Rain = 0
KOD1 131003Z 12006KT M03/M05 A3035 RMK A01 T10251051  RH  082%=      5-min Rain = 0
KOD1 131004Z 12006KT M02/M05 A3035 RMK A01 T10241051  RH  082%=      5-min Rain = 0
KOD1 131005Z 12006KT M02/M05 A3036 RMK A01 T10241051  RH  081%=      5-min Rain = 0
KOD1 131006Z 12006KT M02/M05 A3036 RMK A01 T10231051  RH  081%=      5-min Rain = 0
KOD1 131007Z 11006KT M02/M05 A3036 RMK A01 T10231051  RH  081%=      5-min Rain = 0
KOD1 131008Z 12006KT M02/M05 A3036 RMK A01 T10231051  RH  081%=      5-min Rain = 0
KOD1 131009Z 11006KT M02/M05 A3036 RMK A01 T10221051  RH  081%=      5-min Rain = 0
KOD1 131010Z 11006KT M02/M05 A3036 RMK A01 T10221051  RH  081%=      5-min Rain = 0
KOD1 131011Z 11006KT M02/M05 A3036 RMK A01 T10221051  RH  081%=      5-min Rain = 0
KOD1 131012Z 11006KT M02/M05 A3036 RMK A01 T10231052  RH  080%=      5-min Rain = 0
KOD1 131013Z 11006KT M02/M05 A3036 RMK A01 T10231052  RH  080%=      5-min Rain = 0
KOD1 131014Z 11006KT M02/M05 A3036 RMK A01 T10231052  RH  081%=      5-min Rain = 0
KOD1 131015Z 11006KT M02/M05 A3036 RMK A01 T10231052  RH  081%=      5-min Rain = 0
KOD1 131016Z 11006KT M02/M05 A3036 RMK A01 T10231052  RH  081%=      5-min Rain = 0
KOD1 131017Z 11006KT M02/M05 A3036 RMK A01 T10231052  RH  081%=      5-min Rain = 0
KOD1 131018Z 11006KT M02/M05 A3036 RMK A01 T10231052  RH  081%=      5-min Rain = 0
KOD1 131019Z 11006KT M02/M05 A3036 RMK A01 T10231052  RH  081%=      5-min Rain = 0
KOD1 131020Z 11006KT M02/M05 A3036 RMK A01 T10231052  RH  081%=      5-min Rain = 0
KOD1 131021Z 11006KT M02/M05 A3036 RMK A01 T10231052  RH  081%=      5-min Rain = 0
KOD1 131022Z 11006KT M02/M05 A3036 RMK A01 T10231052  RH  081%=      5-min Rain = 0
KOD1 131023Z 11006KT M02/M05 A3036 RMK A01 T10231052  RH  081%=      5-min Rain = 0
KOD1 131024Z 11006KT M02/M05 A3036 RMK A01 T10241052  RH  081%=      5-min Rain = 0
KOD1 131025Z 11006KT M02/M05 A3036 RMK A01 T10241052  RH  081%=      5-min Rain = 0
KOD1 131026Z 11006KT M02/M05 A3036 RMK A01 T10241052  RH  081%=      5-min Rain = 0
KOD1 131027Z 11006KT M02/M05 A3036 RMK A01 T10241053  RH  081%=      5-min Rain = 0
KOD1 131028Z 11006KT M02/M05 A3036 RMK A01 T10241053  RH  081%=      5-min Rain = 0
KOD1 131029Z 12007KT M02/M05 A3036 RMK A01 T10241053  RH  081%=      5-min Rain = 0
KOD1 131030Z 11007KT M03/M05 A3036 RMK A01 T10251052  RH  081%=      5-min Rain = 0
KOD1 131031Z 11007KT M03/M05 A3036 RMK A01 T10251052  RH  081%=      5-min Rain = 0
KOD1 131032Z 12007KT M02/M05 A3036 RMK A01 T10241052  RH  081%=      5-min Rain = 0
KOD1 131033Z 12007KT M02/M05 A3036 RMK A01 T10241052  RH  081%=      5-min Rain = 0
KOD1 131034Z 11007KT M02/M05 A3036 RMK A01 T10241052  RH  081%=      5-min Rain = 0
KOD1 131035Z 11007KT M02/M05 A3036 RMK A01 T10241052  RH  081%=      5-min Rain = 0
KOD1 131036Z 11007KT M02/M05 A3036 RMK A01 T10241051  RH  081%=      5-min Rain = 0
KOD1 131037Z 11008KT M02/M05 A3036 RMK A01 T10241051  RH  082%=      5-min Rain = 0
KOD1 131038Z 11007KT M02/M05 A3036 RMK A01 T10231050  RH  082%=      5-min Rain = 0
KOD1 131039Z 11008KT M02/M05 A3036 RMK A01 T10231050  RH  081%=      5-min Rain = 0
KOD1 131040Z 11008KT M02/M05 A3036 RMK A01 T10221050  RH  081%=      5-min Rain = 0
KOD1 131041Z 11008KT M02/M05 A3035 RMK A01 T10221050  RH  081%=      5-min Rain = 0
KOD1 131042Z 11008KT M02/M05 A3035 RMK A01 T10221050  RH  081%=      5-min Rain = 0
KOD1 131043Z 11008KT M02/M05 A3035 RMK A01 T10221050  RH  081%=      5-min Rain = 0
KOD1 131044Z 11007KT M02/M05 A3035 RMK A01 T10221050  RH  081%=      5-min Rain = 0
KOD1 131045Z 11008KT M02/M05 A3035 RMK A01 T10221050  RH  081%=      5-min Rain = 0
KOD1 131046Z 11007KT M02/M05 A3035 RMK A01 T10221050  RH  081%=      5-min Rain = 0
KOD1 131047Z 11007KT M02/M05 A3035 RMK A01 T10221050  RH  081%=      5-min Rain = 0
KOD1 131048Z 11007KT M02/M05 A3035 RMK A01 T10221050  RH  081%=      5-min Rain = 0
KOD1 131049Z 10006KT M02/M05 A3035 RMK A01 T10221050  RH  081%=      5-min Rain = 0
KOD1 131050Z 10006KT M02/M05 A3035 RMK A01 T10221051  RH  081%=      5-min Rain = 0
KOD1 131051Z 09006KT M02/M05 A3035 RMK A01 T10231051  RH  081%=      5-min Rain = 0
KOD1 131052Z 09005KT M02/M05 A3035 RMK A01 T10231052  RH  081%=      5-min Rain = 0
KOD1 131053Z 09005KT M02/M05 A3035 RMK A01 T10241053  RH  081%=      5-min Rain = 0
KOD1 131054Z 08006KT M03/M05 A3035 RMK A01 T10251054  RH  080%=      5-min Rain = 0
KOD1 131055Z 08006KT M03/M05 A3035 RMK A01 T10261054  RH  081%=      5-min Rain = 0
KOD1 131056Z 09006KT M03/M05 A3035 RMK A01 T10261054  RH  081%=      5-min Rain = 0
KOD1 131057Z 09006KT M03/M06 A3036 RMK A01 T10271055  RH  081%=      5-min Rain = 0
KOD1 131058Z 09006KT M03/M06 A3036 RMK A01 T10281056  RH  081%=      5-min Rain = 0
KOD1 131059Z 09006KT M03/M06 A3036 RMK A01 T10291057  RH  081%=      5-min Rain = 0
KOD1 131100Z 09006KT M03/M06 A3036 RMK A01 T10301057  RH  082%=      5-min Rain = 0
KOD1 131101Z 09006KT M03/M06 A3036 RMK A01 T10301057  RH  082%=      5-min Rain = 0
KOD1 131102Z 09006KT M03/M06 A3036 RMK A01 T10311057  RH  082%=      5-min Rain = 0
KOD1 131103Z 09007KT M03/M06 A3036 RMK A01 T10311057  RH  083%=      5-min Rain = 0
KOD1 131104Z 09006KT M03/M06 A3036 RMK A01 T10311056  RH  083%=      5-min Rain = 0
KOD1 131105Z 09006KT M03/M06 A3036 RMK A01 T10311056  RH  083%=      5-min Rain = 0
KOD1 131106Z 09006KT M03/M06 A3036 RMK A01 T10311056  RH  083%=      5-min Rain = 0
KOD1 131107Z 09006KT M03/M06 A3036 RMK A01 T10311055  RH  083%=      5-min Rain = 0
KOD1 131108Z 09006KT M03/M06 A3036 RMK A01 T10311055  RH  083%=      5-min Rain = 0
KOD1 131109Z 09007KT M03/M06 A3036 RMK A01 T10311055  RH  083%=      5-min Rain = 0
KOD1 131110Z 09007KT M03/M06 A3036 RMK A01 T10311055  RH  083%=      5-min Rain = 0
KOD1 131111Z 10007KT M03/M06 A3036 RMK A01 T10311056  RH  083%=      5-min Rain = 0
KOD1 131112Z 10007KT M03/M06 A3036 RMK A01 T10311056  RH  083%=      5-min Rain = 0
KOD1 131113Z 10007KT M03/M06 A3036 RMK A01 T10311055  RH  084%=      5-min Rain = 0
KOD1 131114Z 10007KT M03/M06 A3036 RMK A01 T10311055  RH  084%=      5-min Rain = 0
KOD1 131115Z 10007KT M03/M06 A3036 RMK A01 T10321056  RH  083%=      5-min Rain = 0
KOD1 131116Z 10007KT M03/M06 A3036 RMK A01 T10321056  RH  083%=      5-min Rain = 0
KOD1 131117Z 10007KT M03/M06 A3036 RMK A01 T10321056  RH  084%=      5-min Rain = 0
KOD1 131118Z 10007KT M03/M06 A3036 RMK A01 T10331056  RH  084%=      5-min Rain = 0
KOD1 131119Z 10007KT M03/M06 A3036 RMK A01 T10331056  RH  084%=      5-min Rain = 0
KOD1 131120Z 10006KT M03/M06 A3036 RMK A01 T10331056  RH  084%=      5-min Rain = 0
KOD1 131121Z 10006KT M03/M06 A3036 RMK A01 T10331056  RH  084%=      5-min Rain = 0
KOD1 131122Z 10006KT M03/M06 A3036 RMK A01 T10331056  RH  084%=      5-min Rain = 0
KOD1 131123Z 11006KT M03/M06 A3036 RMK A01 T10331056  RH  084%=      5-min Rain = 0
KOD1 131124Z 11006KT M03/M06 A3036 RMK A01 T10331056  RH  084%=      5-min Rain = 0
KOD1 131125Z 11006KT M03/M06 A3036 RMK A01 T10331056  RH  084%=      5-min Rain = 0
KOD1 131126Z 11005KT M03/M06 A3036 RMK A01 T10331057  RH  084%=      5-min Rain = 0
KOD1 131127Z 11005KT M03/M06 A3036 RMK A01 T10341057  RH  084%=      5-min Rain = 0
KOD1 131128Z 10005KT M03/M06 A3036 RMK A01 T10341057  RH  084%=      5-min Rain = 0
KOD1 131129Z 10005KT M03/M06 A3036 RMK A01 T10341057  RH  084%=      5-min Rain = 0
KOD1 131130Z 10005KT M03/M06 A3036 RMK A01 T10341057  RH  084%=      5-min Rain = 0
KOD1 131131Z 10005KT M03/M06 A3036 RMK A01 T10341057  RH  084%=      5-min Rain = 0
KOD1 131132Z 10005KT M03/M06 A3036 RMK A01 T10341057  RH  084%=      5-min Rain = 0
KOD1 131133Z 10005KT M04/M06 A3036 RMK A01 T10351058  RH  084%=      5-min Rain = 0
KOD1 131134Z 10005KT M04/M06 A3037 RMK A01 T10351058  RH  084%=      5-min Rain = 0
KOD1 131135Z 10005KT M04/M06 A3037 RMK A01 T10361058  RH  085%=      5-min Rain = 0
KOD1 131136Z 10005KT M04/M06 A3037 RMK A01 T10361058  RH  085%=      5-min Rain = 0
KOD1 131137Z 10005KT M04/M06 A3036 RMK A01 T10361058  RH  085%=      5-min Rain = 0
KOD1 131138Z 10005KT M04/M06 A3036 RMK A01 T10361058  RH  085%=      5-min Rain = 0
KOD1 131139Z 09005KT M04/M06 A3036 RMK A01 T10361058  RH  085%=      5-min Rain = 0
KOD1 131140Z 09004KT M04/M06 A3037 RMK A01 T10361057  RH  085%=      5-min Rain = 0
KOD1 131141Z 09004KT M04/M06 A3037 RMK A01 T10361057  RH  085%=      5-min Rain = 0
KOD1 131142Z 09004KT M04/M06 A3037 RMK A01 T10361058  RH  085%=      5-min Rain = 0
KOD1 131143Z 09004KT M04/M06 A3037 RMK A01 T10361058  RH  085%=      5-min Rain = 0
KOD1 131144Z 09004KT M04/M06 A3037 RMK A01 T10361057  RH  085%=      5-min Rain = 0
KOD1 131145Z 09004KT M04/M06 A3037 RMK A01 T10361056  RH  086%=      5-min Rain = 0
KOD1 131146Z 09004KT M04/M06 A3037 RMK A01 T10351056  RH  086%=      5-min Rain = 0
KOD1 131147Z 09004KT M04/M06 A3037 RMK A01 T10351056  RH  085%=      5-min Rain = 0
KOD1 131148Z 08004KT M04/M06 A3037 RMK A01 T10351056  RH  085%=      5-min Rain = 0
KOD1 131149Z 08004KT M04/M06 A3037 RMK A01 T10351056  RH  085%=      5-min Rain = 0
KOD1 131150Z 07004KT M04/M06 A3037 RMK A01 T10351057  RH  085%=      5-min Rain = 0
KOD1 131151Z 07004KT M04/M06 A3037 RMK A01 T10351056  RH  086%=      5-min Rain = 0
KOD1 131152Z 07004KT M04/M06 A3037 RMK A01 T10351057  RH  085%=      5-min Rain = 0
KOD1 131153Z 06004KT M04/M06 A3037 RMK A01 T10361059  RH  085%=      5-min Rain = 0
KOD1 131154Z 06004KT M04/M06 A3037 RMK A01 T10381061  RH  084%=      5-min Rain = 0
KOD1 131155Z 06004KT M04/M06 A3037 RMK A01 T10391063  RH  084%=      5-min Rain = 0
KOD1 131156Z 06004KT M04/M06 A3037 RMK A01 T10411063  RH  084%=      5-min Rain = 0
KOD1 131157Z 06004KT M04/M06 A3037 RMK A01 T10411063  RH  085%=      5-min Rain = 0
KOD1 131158Z 06004KT M04/M06 A3037 RMK A01 T10421063  RH  085%=      5-min Rain = 0
KOD1 131159Z 06005KT M04/M06 A3037 RMK A01 T10431064  RH  085%=      5-min Rain = 0
KOD1 131200Z 06005KT M04/M07 A3037 RMK A01 T10441066  RH  085%=      5-min Rain = 0
KOD1 131201Z 06005KT M05/M07 A3037 RMK A01 T10461067  RH  085%=      5-min Rain = 0
KOD1 131202Z 06005KT M05/M07 A3037 RMK A01 T10471069  RH  085%=      5-min Rain = 0
KOD1 131203Z 06005KT M05/M07 A3037 RMK A01 T10491071  RH  085%=      5-min Rain = 0
KOD1 131204Z 06005KT M05/M07 A3038 RMK A01 T10511072  RH  085%=      5-min Rain = 0
KOD1 131205Z 07005KT M05/M07 A3038 RMK A01 T10521072  RH  086%=      5-min Rain = 0
KOD1 131206Z 07004KT M05/M07 A3038 RMK A01 T10521070  RH  087%=      5-min Rain = 0
KOD1 131207Z 08003KT M05/M07 A3038 RMK A01 T10511068  RH  088%=      5-min Rain = 0
KOD1 131208Z 07004KT M05/M07 A3038 RMK A01 T10511067  RH  088%=      5-min Rain = 0
KOD1 131209Z 07003KT M05/M07 A3038 RMK A01 T10511067  RH  088%=      5-min Rain = 0
KOD1 131210Z 07004KT M05/M07 A3038 RMK A01 T10511068  RH  088%=      5-min Rain = 0
KOD1 131211Z 07004KT M05/M07 A3038 RMK A01 T10511068  RH  088%=      5-min Rain = 0
KOD1 131212Z 07003KT M05/M07 A3038 RMK A01 T10521069  RH  088%=      5-min Rain = 0
KOD1 131213Z 08002KT M05/M07 A3038 RMK A01 T10521070  RH  088%=      5-min Rain = 0
KOD1 131214Z 08002KT M05/M07 A3038 RMK A01 T10531071  RH  087%=      5-min Rain = 0
KOD1 131215Z 07001KT M05/M07 A3038 RMK A01 T10541072  RH  087%=      5-min Rain = 0
KOD1 131216Z 06001KT M06/M07 A3038 RMK A01 T10551072  RH  088%=      5-min Rain = 0
KOD1 131217Z 06000KT M06/M07 A3039 RMK A01 T10551071  RH  088%=      5-min Rain = 0
KOD1 131218Z 06001KT M06/M07 A3039 RMK A01 T10551071  RH  088%=      5-min Rain = 0
KOD1 131219Z 05001KT M06/M07 A3039 RMK A01 T10551071  RH  089%=      5-min Rain = 0
KOD1 131220Z 05000KT M06/M07 A3039 RMK A01 T10561072  RH  088%=      5-min Rain = 0
KOD1 131221Z 33001KT M06/M07 A3039 RMK A01 T10571074  RH  088%=      5-min Rain = 0
KOD1 131222Z 32002KT M06/M08 A3039 RMK A01 T10581075  RH  088%=      5-min Rain = 0
KOD1 131223Z 32002KT M06/M08 A3039 RMK A01 T10591076  RH  088%=      5-min Rain = 0
KOD1 131224Z 32003KT M06/M08 A3039 RMK A01 T10601077  RH  088%=      5-min Rain = 0
KOD1 131225Z 32003KT M06/M08 A3039 RMK A01 T10611077  RH  088%=      5-min Rain = 0
KOD1 131226Z 32003KT M06/M08 A3039 RMK A01 T10621077  RH  089%=      5-min Rain = 0
KOD1 131227Z 32003KT M06/M08 A3039 RMK A01 T10621076  RH  089%=      5-min Rain = 0
KOD1 131228Z 32002KT M06/M08 A3039 RMK A01 T10621076  RH  090%=      5-min Rain = 0
KOD1 131229Z 32002KT M06/M08 A3039 RMK A01 T10621077  RH  089%=      5-min Rain = 0
KOD1 131230Z 32002KT M06/M08 A3039 RMK A01 T10621077  RH  090%=      5-min Rain = 0
KOD1 131231Z 32003KT M06/M08 A3039 RMK A01 T10631077  RH  090%=      5-min Rain = 0
KOD1 131232Z 31004KT M06/M08 A304 RMK A01 T10631076  RH  090%=      5-min Rain = 0
KOD1 131233Z 31004KT M06/M08 A304 RMK A01 T10621076  RH  090%=      5-min Rain = 0
KOD1 131234Z 31004KT M06/M08 A304 RMK A01 T10621075  RH  091%=      5-min Rain = 0
KOD1 131235Z 32003KT M06/M08 A304 RMK A01 T10621075  RH  091%=      5-min Rain = 0
KOD1 131236Z 32003KT M06/M08 A304 RMK A01 T10621075  RH  091%=      5-min Rain = 0
KOD1 131237Z 33003KT M06/M08 A304 RMK A01 T10621075  RH  090%=      5-min Rain = 0
KOD1 131238Z 34002KT M06/M08 A304 RMK A01 T10621075  RH  091%=      5-min Rain = 0
KOD1 131239Z 35002KT M06/M07 A304 RMK A01 T10621074  RH  091%=      5-min Rain = 0
KOD1 131240Z 35002KT M06/M07 A304 RMK A01 T10621074  RH  091%=      5-min Rain = 0
KOD1 131241Z 35002KT M06/M07 A304 RMK A01 T10611074  RH  091%=      5-min Rain = 0
KOD1 131242Z 35001KT M06/M07 A304 RMK A01 T10611073  RH  091%=      5-min Rain = 0
KOD1 131243Z 35001KT M06/M07 A304 RMK A01 T10611073  RH  091%=      5-min Rain = 0
KOD1 131244Z 35000KT M06/M07 A304 RMK A01 T10611073  RH  091%=      5-min Rain = 0
KOD1 131245Z 00000KT M06/M07 A304 RMK A01 T10611073  RH  091%=      5-min Rain = 0
KOD1 131246Z 34000KT M06/M07 A304 RMK A01 T10611073  RH  091%=      5-min Rain = 0
KOD1 131247Z 32001KT M06/M07 A304 RMK A01 T10611073  RH  091%=      5-min Rain = 0
KOD1 131248Z 32001KT M06/M07 A304 RMK A01 T10601072  RH  091%=      5-min Rain = 0
KOD1 131249Z 32001KT M06/M07 A304 RMK A01 T10601072  RH  091%=      5-min Rain = 0
KOD1 131250Z 33002KT M06/M07 A304 RMK A01 T10601072  RH  091%=      5-min Rain = 0
KOD1 131251Z 33002KT M06/M07 A304 RMK A01 T10601072  RH  091%=      5-min Rain = 0
KOD1 131252Z 32002KT M06/M07 A304 RMK A01 T10601072  RH  091%=      5-min Rain = 0
KOD1 131253Z 32002KT M06/M07 A304 RMK A01 T10601072  RH  091%=      5-min Rain = 0
KOD1 131254Z 32001KT M06/M07 A304 RMK A01 T10601072  RH  091%=      5-min Rain = 0
KOD1 131255Z 32001KT M06/M07 A304 RMK A01 T10601073  RH  091%=      5-min Rain = 0
KOD1 131256Z 32001KT M06/M07 A304 RMK A01 T10611073  RH  091%=      5-min Rain = 0
KOD1 131257Z 33001KT M06/M07 A304 RMK A01 T10611074  RH  091%=      5-min Rain = 0
KOD1 131258Z 33001KT M06/M07 A304 RMK A01 T10611074  RH  091%=      5-min Rain = 0
KOD1 131259Z 33001KT M06/M07 A304 RMK A01 T10611074  RH  091%=      5-min Rain = 0
KOD1 131300Z 33001KT M06/M07 A304 RMK A01 T10621074  RH  091%=      5-min Rain = 0
KOD1 131301Z 33001KT M06/M08 A304 RMK A01 T10621075  RH  091%=      5-min Rain = 0
KOD1 131302Z 34001KT M06/M08 A304 RMK A01 T10621075  RH  091%=      5-min Rain = 0
KOD1 131303Z 35001KT M06/M08 A304 RMK A01 T10621075  RH  091%=      5-min Rain = 0
KOD1 131304Z 35001KT M06/M08 A304 RMK A01 T10631075  RH  091%=      5-min Rain = 0
KOD1 131305Z 35001KT M06/M08 A304 RMK A01 T10631075  RH  091%=      5-min Rain = 0
KOD1 131306Z 35001KT M06/M08 A304 RMK A01 T10631075  RH  091%=      5-min Rain = 0
KOD1 131307Z 35001KT M06/M08 A304 RMK A01 T10631075  RH  091%=      5-min Rain = 0
KOD1 131308Z 35001KT M06/M08 A304 RMK A01 T10631075  RH  091%=      5-min Rain = 0
KOD1 131309Z 35001KT M06/M08 A304 RMK A01 T10631075  RH  091%=      5-min Rain = 0
KOD1 131310Z 35001KT M06/M08 A304 RMK A01 T10631076  RH  091%=      5-min Rain = 0
KOD1 131311Z 35001KT M06/M08 A304 RMK A01 T10631076  RH  091%=      5-min Rain = 0
KOD1 131312Z 35002KT M06/M08 A304 RMK A01 T10641076  RH  091%=      5-min Rain = 0
KOD1 131313Z 35002KT M06/M08 A304 RMK A01 T10641076  RH  091%=      5-min Rain = 0
KOD1 131314Z 00002KT M06/M08 A304 RMK A01 T10631075  RH  092%=      5-min Rain = 0
KOD1 131315Z 00002KT M06/M07 A304 RMK A01 T10631074  RH  092%=      5-min Rain = 0
KOD1 131316Z 01002KT M06/M07 A3039 RMK A01 T10631074  RH  092%=      5-min Rain = 0
KOD1 131317Z 01002KT M06/M07 A3039 RMK A01 T10621073  RH  092%=      5-min Rain = 0
KOD1 131318Z 02002KT M06/M07 A3039 RMK A01 T10611072  RH  092%=      5-min Rain = 0
KOD1 131319Z 02002KT M06/M07 A3039 RMK A01 T10611071  RH  092%=      5-min Rain = 0
KOD1 131320Z 02002KT M06/M07 A3039 RMK A01 T10601071  RH  092%=      5-min Rain = 0
KOD1 131321Z 02003KT M06/M07 A3039 RMK A01 T10601071  RH  092%=      5-min Rain = 0
KOD1 131322Z 02003KT M06/M07 A3039 RMK A01 T10601071  RH  092%=      5-min Rain = 0
KOD1 131323Z 03003KT M06/M07 A3039 RMK A01 T10611072  RH  092%=      5-min Rain = 0
KOD1 131324Z 03003KT M06/M07 A3039 RMK A01 T10601071  RH  092%=      5-min Rain = 0
KOD1 131325Z 04003KT M06/M07 A3039 RMK A01 T10601070  RH  093%=      5-min Rain = 0
KOD1 131326Z 04002KT M06/M07 A3039 RMK A01 T10591069  RH  093%=      5-min Rain = 0
KOD1 131327Z 05002KT M06/M07 A3039 RMK A01 T10591069  RH  093%=      5-min Rain = 0
KOD1 131328Z 06003KT M06/M07 A3039 RMK A01 T10581068  RH  093%=      5-min Rain = 0
KOD1 131329Z 06003KT M06/M07 A3039 RMK A01 T10581067  RH  093%=      5-min Rain = 0
KOD1 131330Z 06003KT M06/M07 A3039 RMK A01 T10581069  RH  092%=      5-min Rain = 0
KOD1 131331Z 06003KT M06/M07 A3039 RMK A01 T10591070  RH  092%=      5-min Rain = 0
KOD1 131332Z 05003KT M06/M07 A3039 RMK A01 T10601072  RH  091%=      5-min Rain = 0
KOD1 131333Z 04003KT M06/M07 A3039 RMK A01 T10611073  RH  091%=      5-min Rain = 0
KOD1 131334Z 04003KT M06/M07 A3039 RMK A01 T10611074  RH  091%=      5-min Rain = 0
KOD1 131335Z 04003KT M06/M08 A3039 RMK A01 T10621075  RH  091%=      5-min Rain = 0
KOD1 131336Z 04002KT M06/M08 A3039 RMK A01 T10631075  RH  091%=      5-min Rain = 0
KOD1 131337Z 04002KT M06/M07 A3039 RMK A01 T10621074  RH  092%=      5-min Rain = 0
KOD1 131338Z 05002KT M06/M07 A3039 RMK A01 T10621073  RH  092%=      5-min Rain = 0
KOD1 131339Z 05002KT M06/M07 A3039 RMK A01 T10621073  RH  092%=      5-min Rain = 0
KOD1 131340Z 07002KT M06/M07 A3039 RMK A01 T10621073  RH  092%=      5-min Rain = 0
KOD1 131341Z 07002KT M06/M07 A3039 RMK A01 T10611072  RH  092%=      5-min Rain = 0
KOD1 131342Z 09002KT M06/M07 A3039 RMK A01 T10601071  RH  092%=      5-min Rain = 0
KOD1 131343Z 09002KT M06/M07 A3039 RMK A01 T10601070  RH  092%=      5-min Rain = 0
KOD1 131344Z 08003KT M06/M07 A3039 RMK A01 T10601070  RH  092%=      5-min Rain = 0
KOD1 131345Z 09002KT M06/M07 A3039 RMK A01 T10591070  RH  092%=      5-min Rain = 0
KOD1 131346Z 10002KT M06/M07 A3039 RMK A01 T10591069  RH  092%=      5-min Rain = 0
KOD1 131347Z 10003KT M06/M07 A3039 RMK A01 T10581069  RH  092%=      5-min Rain = 0
KOD1 131348Z 09003KT M06/M07 A3039 RMK A01 T10571068  RH  092%=      5-min Rain = 0
KOD1 131349Z 09004KT M06/M07 A3039 RMK A01 T10561067  RH  092%=      5-min Rain = 0
KOD1 131350Z 09004KT M06/M07 A3039 RMK A01 T10561066  RH  092%=      5-min Rain = 0
KOD1 131351Z 09005KT M06/M07 A3039 RMK A01 T10551066  RH  092%=      5-min Rain = 0
KOD1 131352Z 09005KT M05/M07 A3039 RMK A01 T10541065  RH  092%=      5-min Rain = 0
KOD1 131353Z 09005KT M05/M06 A3039 RMK A01 T10531063  RH  092%=      5-min Rain = 0
KOD1 131354Z 09005KT M05/M06 A3038 RMK A01 T10501060  RH  093%=      5-min Rain = 0
KOD1 131355Z 09005KT M05/M06 A3038 RMK A01 T10481058  RH  093%=      5-min Rain = 0
KOD1 131356Z 08004KT M05/M06 A3038 RMK A01 T10461056  RH  093%=      5-min Rain = 0
KOD1 131357Z 09004KT M05/M06 A3039 RMK A01 T10451055  RH  092%=      5-min Rain = 0
KOD1 131358Z 08003KT M04/M06 A3039 RMK A01 T10441055  RH  092%=      5-min Rain = 0
KOD1 131359Z 09004KT M04/M05 A3039 RMK A01 T10431053  RH  092%=      5-min Rain = 0
KOD1 131400Z 08004KT M04/M05 A3039 RMK A01 T10411052  RH  092%=      5-min Rain = 0
KOD1 131401Z 08004KT M04/M05 A3039 RMK A01 T10391050  RH  093%=      5-min Rain = 0
KOD1 131402Z 08004KT M04/M05 A3039 RMK A01 T10371047  RH  093%=      5-min Rain = 0
KOD1 131403Z 08005KT M04/M05 A3039 RMK A01 T10351046  RH  092%=      5-min Rain = 0
KOD1 131404Z 08004KT M03/M05 A3039 RMK A01 T10341045  RH  092%=      5-min Rain = 0
KOD1 131405Z 08003KT M03/M04 A3039 RMK A01 T10321044  RH  092%=      5-min Rain = 0
KOD1 131406Z 07003KT M03/M04 A3039 RMK A01 T10311043  RH  091%=      5-min Rain = 0
KOD1 131407Z 07003KT M03/M04 A3039 RMK A01 T10291042  RH  091%=      5-min Rain = 0
KOD1 131408Z 08003KT M03/M04 A3039 RMK A01 T10281040  RH  091%=      5-min Rain = 0
KOD1 131409Z 08003KT M03/M04 A3039 RMK A01 T10261039  RH  091%=      5-min Rain = 0
KOD1 131410Z 08004KT M02/M04 A3039 RMK A01 T10241038  RH  090%=      5-min Rain = 0
KOD1 131411Z 08004KT M02/M04 A3039 RMK A01 T10221037  RH  089%=      5-min Rain = 0
KOD1 131412Z 08005KT M02/M04 A3039 RMK A01 T10201036  RH  089%=      5-min Rain = 0
KOD1 131413Z 08005KT M02/M04 A3039 RMK A01 T10181036  RH  088%=      5-min Rain = 0
KOD1 131414Z 07004KT M02/M04 A3039 RMK A01 T10171035  RH  087%=      5-min Rain = 0
KOD1 131415Z 07004KT M02/M04 A3039 RMK A01 T10151035  RH  086%=      5-min Rain = 0
KOD1 131416Z 07004KT M01/M04 A3039 RMK A01 T10141036  RH  085%=      5-min Rain = 0
KOD1 131417Z 07004KT M01/M04 A3039 RMK A01 T10131036  RH  085%=      5-min Rain = 0
KOD1 131418Z 07004KT M01/M04 A3039 RMK A01 T10121035  RH  085%=      5-min Rain = 0
KOD1 131419Z 07004KT M01/M04 A3039 RMK A01 T10121036  RH  083%=      5-min Rain = 0
KOD1 131420Z 06005KT M01/M04 A3038 RMK A01 T10111035  RH  083%=      5-min Rain = 0
KOD1 131421Z 07005KT M01/M04 A3038 RMK A01 T10101035  RH  083%=      5-min Rain = 0
KOD1 131422Z 08004KT M01/M04 A3039 RMK A01 T10101035  RH  083%=      5-min Rain = 0
KOD1 131423Z 08004KT M01/M04 A3039 RMK A01 T10091035  RH  083%=      5-min Rain = 0
KOD1 131424Z 06004KT M01/M04 A3038 RMK A01 T10091036  RH  082%=      5-min Rain = 0
KOD1 131425Z 05004KT M01/M04 A3038 RMK A01 T10091036  RH  082%=      5-min Rain = 0
KOD1 131426Z 05005KT M01/M04 A3038 RMK A01 T10081035  RH  082%=      5-min Rain = 0
KOD1 131427Z 05005KT M01/M04 A3038 RMK A01 T10081035  RH  082%=      5-min Rain = 0
KOD1 131428Z 06006KT M01/M04 A3038 RMK A01 T10081035  RH  082%=      5-min Rain = 0
KOD1 131429Z 07006KT M01/M03 A3038 RMK A01 T10071034  RH  082%=      5-min Rain = 0
KOD1 131430Z 07005KT M01/M03 A3038 RMK A01 T10071034  RH  082%=      5-min Rain = 0
KOD1 131431Z 08004KT M01/M03 A3039 RMK A01 T10061034  RH  082%=      5-min Rain = 0
KOD1 131432Z 09004KT M01/M03 A3039 RMK A01 T10061033  RH  082%=      5-min Rain = 0
KOD1 131433Z 10004KT M01/M03 A3039 RMK A01 T10051033  RH  081%=      5-min Rain = 0
KOD1 131434Z 11006KT M00/M03 A304 RMK A01 T10041033  RH  081%=      5-min Rain = 0
KOD1 131435Z 11006KT M00/M03 A304 RMK A01 T10041033  RH  081%=      5-min Rain = 0
KOD1 131436Z 11007KT M00/M03 A304 RMK A01 T10031032  RH  081%=      5-min Rain = 0
KOD1 131437Z 11007KT M00/M03 A304 RMK A01 T10021033  RH  080%=      5-min Rain = 0
KOD1 131438Z 11006KT M00/M03 A304 RMK A01 T10021033  RH  080%=      5-min Rain = 0
KOD1 131439Z 11007KT M00/M03 A304 RMK A01 T10021033  RH  079%=      5-min Rain = 0
KOD1 131440Z 11007KT M00/M03 A304 RMK A01 T10021034  RH  079%=      5-min Rain = 0
KOD1 131441Z 11007KT M00/M03 A304 RMK A01 T10011033  RH  079%=      5-min Rain = 0
KOD1 131442Z 11005KT 00/03 A304 RMK A01 T00-00-32  RH  080%=      5-min Rain = 0
KOD1 131443Z 12006KT 00/M03 A304 RMK A01 T00011031  RH  079%=      5-min Rain = 0
KOD1 131444Z 12007KT 00/M03 A304 RMK A01 T00011032  RH  078%=      5-min Rain = 0
KOD1 131445Z 13007KT 00/M03 A304 RMK A01 T00011032  RH  078%=      5-min Rain = 0
KOD1 131446Z 13009KT 00/M03 A304 RMK A01 T00021032  RH  078%=      5-min Rain = 0
KOD1 131447Z 12007KT 00/M03 A304 RMK A01 T00021033  RH  078%=      5-min Rain = 0
KOD1 131448Z 12006KT 00/M03 A304 RMK A01 T00021032  RH  078%=      5-min Rain = 0
KOD1 131449Z 12005KT 00/M03 A304 RMK A01 T00021032  RH  078%=      5-min Rain = 0
KOD1 131450Z 12006KT 00/M03 A304 RMK A01 T00031030  RH  078%=      5-min Rain = 0
KOD1 131451Z 12005KT 00/M03 A3041 RMK A01 T00041029  RH  078%=      5-min Rain = 0
KOD1 131452Z 12004KT 01/M03 A304 RMK A01 T00051029  RH  078%=      5-min Rain = 0
KOD1 131453Z 13004KT 01/M03 A304 RMK A01 T00061028  RH  078%=      5-min Rain = 0
KOD1 131454Z 13005KT 01/M03 A3041 RMK A01 T00071028  RH  077%=      5-min Rain = 0
KOD1 131455Z 13005KT 01/M03 A3041 RMK A01 T00081028  RH  077%=      5-min Rain = 0
KOD1 131456Z 13005KT 01/M03 A3041 RMK A01 T00081027  RH  077%=      5-min Rain = 0
KOD1 131457Z 14006KT 01/M03 A3041 RMK A01 T00081027  RH  077%=      5-min Rain = 0
KOD1 131458Z 14006KT 01/M03 A3041 RMK A01 T00091026  RH  077%=      5-min Rain = 0
KOD1 131459Z 13007KT 01/M03 A3041 RMK A01 T00091026  RH  077%=      5-min Rain = 0
KOD1 131500Z 13008KT 01/M03 A3041 RMK A01 T00091027  RH  077%=      5-min Rain = 0
KOD1 131501Z 13008KT 01/M03 A3042 RMK A01 T00091027  RH  077%=      5-min Rain = 0
KOD1 131502Z 13008KT 01/M03 A3042 RMK A01 T00091027  RH  077%=      5-min Rain = 0
KOD1 131503Z 13006KT 01/M03 A3041 RMK A01 T00091027  RH  077%=      5-min Rain = 0
KOD1 131504Z 13006KT 01/M03 A3041 RMK A01 T00091027  RH  077%=      5-min Rain = 0
KOD1 131505Z 13006KT 01/M03 A3042 RMK A01 T00091027  RH  077%=      5-min Rain = 0
KOD1 131506Z 13005KT 01/M03 A3042 RMK A01 T00091027  RH  077%=      5-min Rain = 0
KOD1 131507Z 13006KT 01/M03 A3042 RMK A01 T00101026  RH  077%=      5-min Rain = 0
KOD1 131508Z 13005KT 01/M03 A3042 RMK A01 T00101027  RH  076%=      5-min Rain = 0
KOD1 131509Z 13006KT 01/M03 A3042 RMK A01 T00111026  RH  076%=      5-min Rain = 0
KOD1 131510Z 14006KT 01/M03 A3042 RMK A01 T00111027  RH  076%=      5-min Rain = 0
KOD1 131511Z 13005KT 01/M03 A3042 RMK A01 T00101027  RH  076%=      5-min Rain = 0
KOD1 131512Z 13007KT 01/M03 A3042 RMK A01 T00111027  RH  076%=      5-min Rain = 0
KOD1 131513Z 13006KT 01/M03 A3042 RMK A01 T00101027  RH  076%=      5-min Rain = 0
KOD1 131514Z 12006KT 01/M03 A3042 RMK A01 T00101027  RH  076%=      5-min Rain = 0
KOD1 131515Z 12005KT 01/M03 A3042 RMK A01 T00111026  RH  076%=      5-min Rain = 0
KOD1 131516Z 12005KT 01/M03 A3042 RMK A01 T00111026  RH  076%=      5-min Rain = 0
KOD1 131517Z 11005KT 01/M03 A3042 RMK A01 T00121026  RH  076%=      5-min Rain = 0
KOD1 131518Z 12005KT 01/M03 A3042 RMK A01 T00121026  RH  076%=      5-min Rain = 0
KOD1 131519Z 14004KT 01/M03 A3043 RMK A01 T00131026  RH  075%=      5-min Rain = 0
KOD1 131520Z 12005KT 01/M03 A3043 RMK A01 T00131026  RH  075%=      5-min Rain = 0
KOD1 131521Z 12005KT 01/M03 A3043 RMK A01 T00131026  RH  075%=      5-min Rain = 0
KOD1 131522Z 13005KT 01/M03 A3043 RMK A01 T00131026  RH  075%=      5-min Rain = 0
KOD1 131523Z 13005KT 01/M03 A3043 RMK A01 T00131026  RH  075%=      5-min Rain = 0
KOD1 131524Z 14005KT 01/M03 A3043 RMK A01 T00131025  RH  076%=      5-min Rain = 0
KOD1 131525Z 14006KT 01/M03 A3043 RMK A01 T00131025  RH  076%=      5-min Rain = 0
KOD1 131526Z 13005KT 01/M03 A3043 RMK A01 T00131025  RH  075%=      5-min Rain = 0
KOD1 131527Z 13005KT 01/M03 A3042 RMK A01 T00141026  RH  075%=      5-min Rain = 0
KOD1 131528Z 13005KT 01/M03 A3042 RMK A01 T00141026  RH  075%=      5-min Rain = 0
KOD1 131529Z 13005KT 01/M03 A3042 RMK A01 T00141026  RH  075%=      5-min Rain = 0
KOD1 131530Z 13004KT 01/M03 A3042 RMK A01 T00141026  RH  075%=      5-min Rain = 0
KOD1 131531Z 13006KT 01/M03 A3042 RMK A01 T00141026  RH  075%=      5-min Rain = 0
KOD1 131532Z 13005KT 01/M03 A3042 RMK A01 T00141025  RH  075%=      5-min Rain = 0
KOD1 131533Z 13005KT 01/M03 A3042 RMK A01 T00141025  RH  075%=      5-min Rain = 0
KOD1 131534Z 13005KT 02/M03 A3042 RMK A01 T00151025  RH  075%=      5-min Rain = 0
KOD1 131535Z 12005KT 02/M03 A3042 RMK A01 T00151025  RH  075%=      5-min Rain = 0
KOD1 131536Z 12006KT 02/M03 A3042 RMK A01 T00151025  RH  075%=      5-min Rain = 0
KOD1 131537Z 12005KT 02/M02 A3042 RMK A01 T00161024  RH  075%=      5-min Rain = 0
KOD1 131538Z 13005KT 02/M02 A3042 RMK A01 T00161024  RH  075%=      5-min Rain = 0
KOD1 131539Z 13005KT 02/M02 A3042 RMK A01 T00161024  RH  075%=      5-min Rain = 0
KOD1 131540Z 13004KT 02/M02 A3042 RMK A01 T00161024  RH  075%=      5-min Rain = 0
KOD1 131541Z 13005KT 02/M02 A3042 RMK A01 T00171023  RH  075%=      5-min Rain = 0
KOD1 131542Z 12005KT 02/M02 A3042 RMK A01 T00171024  RH  074%=      5-min Rain = 0
KOD1 131543Z 12005KT 02/M02 A3042 RMK A01 T00171023  RH  075%=      5-min Rain = 0
KOD1 131544Z 13004KT 02/M02 A3042 RMK A01 T00171023  RH  075%=      5-min Rain = 0
KOD1 131545Z 12004KT 02/M02 A3042 RMK A01 T00181023  RH  074%=      5-min Rain = 0
KOD1 131546Z 12004KT 02/M02 A3042 RMK A01 T00181023  RH  074%=      5-min Rain = 0
KOD1 131547Z 12003KT 02/M02 A3042 RMK A01 T00181022  RH  074%=      5-min Rain = 0
KOD1 131548Z 13003KT 02/M02 A3042 RMK A01 T00191022  RH  074%=      5-min Rain = 0
KOD1 131549Z 11004KT 02/M02 A3042 RMK A01 T00191022  RH  074%=      5-min Rain = 0
KOD1 131550Z 11003KT 02/M02 A3042 RMK A01 T00201021  RH  074%=      5-min Rain = 0
KOD1 131551Z 11004KT 02/M02 A3042 RMK A01 T00211020  RH  074%=      5-min Rain = 0
KOD1 131552Z 12004KT 02/M02 A3042 RMK A01 T00211021  RH  074%=      5-min Rain = 0
KOD1 131553Z 13004KT 02/M02 A3042 RMK A01 T00221019  RH  074%=      5-min Rain = 0
KOD1 131554Z 12004KT 02/M02 A3042 RMK A01 T00231019  RH  074%=      5-min Rain = 0
KOD1 131555Z 13005KT 02/M02 A3042 RMK A01 T00231019  RH  074%=      5-min Rain = 0
KOD1 131556Z 13005KT 02/M02 A3042 RMK A01 T00241018  RH  074%=      5-min Rain = 0
KOD1 131557Z 13004KT 03/M02 A3042 RMK A01 T00251017  RH  074%=      5-min Rain = 0
KOD1 131558Z 12005KT 03/M02 A3042 RMK A01 T00261017  RH  074%=      5-min Rain = 0
KOD1 131559Z 13005KT 03/M02 A3042 RMK A01 T00271017  RH  073%=      5-min Rain = 0
KOD1 131600Z 12003KT 03/M02 A3042 RMK A01 T00271017  RH  073%=      5-min Rain = 0
KOD1 131601Z 13004KT 03/M02 A3042 RMK A01 T00281017  RH  073%=      5-min Rain = 0
KOD1 131602Z 13005KT 03/M02 A3042 RMK A01 T00271017  RH  072%=      5-min Rain = 0
KOD1 131603Z 13005KT 03/M02 A3042 RMK A01 T00271018  RH  072%=      5-min Rain = 0
KOD1 131604Z 13005KT 03/M02 A3042 RMK A01 T00271017  RH  072%=      5-min Rain = 0
KOD1 131605Z 14005KT 03/M02 A3042 RMK A01 T00281017  RH  073%=      5-min Rain = 0
KOD1 131606Z 15006KT 03/M02 A3042 RMK A01 T00281017  RH  073%=      5-min Rain = 0
KOD1 131607Z 14005KT 03/M02 A3042 RMK A01 T00281016  RH  073%=      5-min Rain = 0
KOD1 131608Z 16006KT 03/M02 A3042 RMK A01 T00291015  RH  073%=      5-min Rain = 0
KOD1 131609Z 14005KT 03/M02 A3042 RMK A01 T00291015  RH  073%=      5-min Rain = 0
KOD1 131610Z 14005KT 03/M01 A3042 RMK A01 T00301014  RH  073%=      5-min Rain = 0
KOD1 131611Z 14005KT 03/M01 A3042 RMK A01 T00301014  RH  073%=      5-min Rain = 0
KOD1 131612Z 14005KT 03/M01 A3042 RMK A01 T00311013  RH  073%=      5-min Rain = 0
KOD1 131613Z 14005KT 03/M01 A3042 RMK A01 T00311013  RH  073%=      5-min Rain = 0
KOD1 131614Z 15006KT 03/M01 A3042 RMK A01 T00311014  RH  072%=      5-min Rain = 0
KOD1 131615Z 16007KT 03/M01 A3042 RMK A01 T00321012  RH  073%=      5-min Rain = 0
KOD1 131616Z 15006KT 03/M01 A3042 RMK A01 T00321011  RH  073%=      5-min Rain = 0
KOD1 131617Z 15006KT 03/M01 A3042 RMK A01 T00331011  RH  073%=      5-min Rain = 0
KOD1 131618Z 14005KT 03/M01 A3042 RMK A01 T00331011  RH  073%=      5-min Rain = 0
KOD1 131619Z 15005KT 03/M01 A3042 RMK A01 T00341011  RH  072%=      5-min Rain = 0
KOD1 131620Z 14005KT 03/M01 A3042 RMK A01 T00341011  RH  072%=      5-min Rain = 0
KOD1 131621Z 14007KT 03/M01 A3042 RMK A01 T00341010  RH  073%=      5-min Rain = 0
KOD1 131622Z 14005KT 03/M01 A3042 RMK A01 T00341010  RH  073%=      5-min Rain = 0
KOD1 131623Z 15007KT 03/M01 A3042 RMK A01 T00341010  RH  073%=      5-min Rain = 0
KOD1 131624Z 16006KT 03/M01 A3041 RMK A01 T00341011  RH  073%=      5-min Rain = 0
KOD1 131625Z 14005KT 03/M01 A3041 RMK A01 T00341009  RH  073%=      5-min Rain = 0
KOD1 131626Z 13006KT 04/M01 A3041 RMK A01 T00361009  RH  073%=      5-min Rain = 0
KOD1 131627Z 14006KT 04/M01 A3041 RMK A01 T00361010  RH  072%=      5-min Rain = 0
KOD1 131628Z 15008KT 04/M01 A3041 RMK A01 T00361009  RH  072%=      5-min Rain = 0
KOD1 131629Z 16007KT 04/M01 A3042 RMK A01 T00361009  RH  072%=      5-min Rain = 0
KOD1 131630Z 15007KT 04/M01 A3042 RMK A01 T00361008  RH  073%=      5-min Rain = 0
KOD1 131631Z 15008KT 04/M01 A3042 RMK A01 T00361010  RH  072%=      5-min Rain = 0
KOD1 131632Z 15007KT 04/M01 A3042 RMK A01 T00361009  RH  072%=      5-min Rain = 0
KOD1 131633Z 16006KT 04/M01 A3042 RMK A01 T00361008  RH  073%=      5-min Rain = 0
KOD1 131634Z 17008KT 04/M01 A3042 RMK A01 T00371008  RH  072%=      5-min Rain = 0
KOD1 131635Z 16008KT 04/M01 A3042 RMK A01 T00381007  RH  073%=      5-min Rain = 0
KOD1 131636Z 16008KT 04/M01 A3042 RMK A01 T00381006  RH  073%=      5-min Rain = 0
KOD1 131637Z 17008KT 04/M01 A3042 RMK A01 T00391005  RH  073%=      5-min Rain = 0
KOD1 131638Z 17007KT 04/M01 A3042 RMK A01 T00401005  RH  072%=      5-min Rain = 0
KOD1 131639Z 17008KT 04/M01 A3042 RMK A01 T00401005  RH  072%=      5-min Rain = 0
KOD1 131640Z 17008KT 04/M01 A3042 RMK A01 T00401005  RH  072%=      5-min Rain = 0
KOD1 131641Z 16006KT 04/M01 A3042 RMK A01 T00401005  RH  072%=      5-min Rain = 0
KOD1 131642Z 16006KT 04/M01 A3042 RMK A01 T00401006  RH  072%=      5-min Rain = 0
KOD1 131643Z 16006KT 04/M00 A3042 RMK A01 T00401004  RH  073%=      5-min Rain = 0
KOD1 131644Z 17008KT 04/M00 A3042 RMK A01 T00401003  RH  073%=      5-min Rain = 0
KOD1 131645Z 17008KT 04/M00 A3042 RMK A01 T00401002  RH  074%=      5-min Rain = 0
KOD1 131646Z 16008KT 04/M00 A3042 RMK A01 T00391002  RH  075%=      5-min Rain = 0
KOD1 131647Z 16008KT 04/M00 A3042 RMK A01 T00391002  RH  075%=      5-min Rain = 0
KOD1 131648Z 17008KT 04/00 A3042 RMK A01 T003900-0  RH  076%=      5-min Rain = 0
KOD1 131649Z 18006KT 04/00 A3042 RMK A01 T003800-0  RH  076%=      5-min Rain = 0
KOD1 131650Z 17006KT 04/00 A3042 RMK A01 T00380001  RH  076%=      5-min Rain = 0
KOD1 131651Z 15007KT 04/00 A3042 RMK A01 T00390000  RH  076%=      5-min Rain = 0
KOD1 131652Z 15006KT 04/00 A3042 RMK A01 T003900-0  RH  075%=      5-min Rain = 0
KOD1 131653Z 16005KT 04/M00 A3042 RMK A01 T00391001  RH  075%=      5-min Rain = 0
KOD1 131654Z 17007KT 04/00 A3042 RMK A01 T00400000  RH  076%=      5-min Rain = 0
KOD1 131655Z 18005KT 04/00 A3042 RMK A01 T003900-0  RH  075%=      5-min Rain = 0
KOD1 131656Z 17005KT 04/00 A3042 RMK A01 T00390001  RH  076%=      5-min Rain = 0
KOD1 131657Z 16006KT 04/00 A3042 RMK A01 T00390001  RH  076%=      5-min Rain = 0
KOD1 131658Z 16006KT 04/00 A3042 RMK A01 T003900-0  RH  075%=      5-min Rain = 0
KOD1 131659Z 17004KT 04/00 A3042 RMK A01 T003900-0  RH  076%=      5-min Rain = 0
KOD1 131700Z 17004KT 04/00 A3042 RMK A01 T003900-0  RH  075%=      5-min Rain = 0
KOD1 131701Z 18008KT 04/00 A3042 RMK A01 T00390002  RH  076%=      5-min Rain = 0
KOD1 131702Z 17008KT 04/00 A3043 RMK A01 T00390001  RH  076%=      5-min Rain = 0
KOD1 131703Z 18008KT 04/00 A3043 RMK A01 T00390001  RH  076%=      5-min Rain = 0
KOD1 131704Z 19006KT 04/00 A3043 RMK A01 T00390001  RH  076%=      5-min Rain = 0
KOD1 131705Z 20006KT 04/00 A3042 RMK A01 T00390002  RH  077%=      5-min Rain = 0
KOD1 131706Z 17007KT 04/00 A3042 RMK A01 T00390004  RH  078%=      5-min Rain = 0
KOD1 131707Z 17007KT 04/01 A3043 RMK A01 T00400005  RH  078%=      5-min Rain = 0
KOD1 131708Z 17008KT 04/01 A3043 RMK A01 T00400005  RH  078%=      5-min Rain = 0
KOD1 131709Z 17008KT 04/01 A3043 RMK A01 T00400006  RH  079%=      5-min Rain = 0
KOD1 131710Z 17008KT 04/01 A3043 RMK A01 T00400007  RH  079%=      5-min Rain = 0
KOD1 131711Z 17007KT 04/01 A3042 RMK A01 T00400007  RH  079%=      5-min Rain = 0
KOD1 131712Z 17008KT 04/01 A3042 RMK A01 T00400009  RH  080%=      5-min Rain = 0
KOD1 131713Z 18008KT 04/01 A3043 RMK A01 T00410009  RH  080%=      5-min Rain = 0
KOD1 131714Z 18006KT 04/01 A3043 RMK A01 T00400009  RH  080%=      5-min Rain = 0
KOD1 131715Z 16006KT 04/01 A3042 RMK A01 T00400010  RH  081%=      5-min Rain = 0
KOD1 131716Z 17007KT 04/01 A3042 RMK A01 T00410010  RH  081%=      5-min Rain = 0
KOD1 131717Z 17005KT 04/01 A3042 RMK A01 T00410011  RH  081%=      5-min Rain = 0
KOD1 131718Z 16006KT 04/01 A3042 RMK A01 T00410011  RH  081%=      5-min Rain = 0
KOD1 131719Z 14005KT 04/01 A3042 RMK A01 T00400011  RH  081%=      5-min Rain = 0
KOD1 131720Z 15006KT 04/01 A3042 RMK A01 T00400011  RH  081%=      5-min Rain = 0
KOD1 131721Z 16005KT 04/01 A3042 RMK A01 T00410012  RH  081%=      5-min Rain = 0
KOD1 131722Z 16006KT 04/01 A3042 RMK A01 T00410013  RH  082%=      5-min Rain = 0
KOD1 131723Z 16007KT 04/01 A3042 RMK A01 T00410013  RH  082%=      5-min Rain = 0
KOD1 131724Z 16007KT 04/01 A3042 RMK A01 T00420014  RH  082%=      5-min Rain = 0
KOD1 131725Z 18006KT 04/02 A3042 RMK A01 T00430015  RH  082%=      5-min Rain = 0
KOD1 131726Z 18006KT 04/01 A3042 RMK A01 T00430013  RH  081%=      5-min Rain = 0
KOD1 131727Z 18005KT 04/01 A3042 RMK A01 T00430013  RH  081%=      5-min Rain = 0
KOD1 131728Z 17006KT 04/01 A3042 RMK A01 T00420012  RH  081%=      5-min Rain = 0
KOD1 131729Z 18006KT 04/01 A3042 RMK A01 T00420013  RH  081%=      5-min Rain = 0
KOD1 131730Z 18007KT 04/01 A3042 RMK A01 T00420013  RH  081%=      5-min Rain = 0
KOD1 131731Z 19006KT 04/01 A3042 RMK A01 T00420012  RH  081%=      5-min Rain = 0
KOD1 131732Z 19005KT 04/01 A3042 RMK A01 T00410011  RH  081%=      5-min Rain = 0
KOD1 131733Z 20005KT 04/01 A3042 RMK A01 T00400012  RH  082%=      5-min Rain = 0
KOD1 131734Z 18005KT 04/01 A3042 RMK A01 T00410014  RH  083%=      5-min Rain = 0
KOD1 131735Z 18004KT 04/01 A3042 RMK A01 T00410012  RH  082%=      5-min Rain = 0
KOD1 131736Z 18005KT 04/01 A3042 RMK A01 T00410013  RH  082%=      5-min Rain = 0
KOD1 131737Z 18005KT 04/01 A3042 RMK A01 T00420013  RH  082%=      5-min Rain = 0
KOD1 131738Z 19006KT 04/01 A3041 RMK A01 T00420012  RH  081%=      5-min Rain = 0
KOD1 131739Z 20003KT 04/01 A3041 RMK A01 T00420011  RH  081%=      5-min Rain = 0
KOD1 131740Z 18005KT 04/01 A3041 RMK A01 T00410011  RH  081%=      5-min Rain = 0
KOD1 131741Z 20005KT 04/01 A3041 RMK A01 T00400012  RH  082%=      5-min Rain = 0
KOD1 131742Z 19005KT 04/01 A3041 RMK A01 T00410012  RH  082%=      5-min Rain = 0
KOD1 131743Z 18004KT 04/01 A304 RMK A01 T00410012  RH  082%=      5-min Rain = 0
KOD1 131744Z 19005KT 04/01 A3041 RMK A01 T00410013  RH  082%=      5-min Rain = 0
KOD1 131745Z 19004KT 04/01 A304 RMK A01 T00420012  RH  081%=      5-min Rain = 0
KOD1 131746Z 18002KT 04/01 A304 RMK A01 T00410012  RH  081%=      5-min Rain = 0
KOD1 131747Z 18003KT 04/01 A304 RMK A01 T00420014  RH  082%=      5-min Rain = 0
KOD1 131748Z 17004KT 04/01 A304 RMK A01 T00420014  RH  082%=      5-min Rain = 0
KOD1 131749Z 17005KT 04/01 A304 RMK A01 T00430014  RH  081%=      5-min Rain = 0
KOD1 131750Z 18004KT 04/01 A304 RMK A01 T00430013  RH  081%=      5-min Rain = 0
KOD1 131751Z 18003KT 04/01 A304 RMK A01 T00430012  RH  080%=      5-min Rain = 0
KOD1 131752Z 19003KT 04/01 A304 RMK A01 T00430012  RH  080%=      5-min Rain = 0
KOD1 131753Z 19002KT 04/01 A304 RMK A01 T00430012  RH  081%=      5-min Rain = 0
KOD1 131754Z 20002KT 04/01 A304 RMK A01 T00430012  RH  081%=      5-min Rain = 0
KOD1 131755Z 16003KT 04/01 A304 RMK A01 T00430014  RH  081%=      5-min Rain = 0
KOD1 131756Z 15003KT 04/01 A304 RMK A01 T00440013  RH  080%=      5-min Rain = 0
KOD1 131757Z 16003KT 04/01 A304 RMK A01 T00440014  RH  080%=      5-min Rain = 0
KOD1 131758Z 18003KT 05/01 A304 RMK A01 T00450014  RH  080%=      5-min Rain = 0
KOD1 131759Z 21003KT 05/01 A304 RMK A01 T00450013  RH  080%=      5-min Rain = 0
KOD1 131800Z 21003KT 05/01 A304 RMK A01 T00450013  RH  080%=      5-min Rain = 0
KOD1 131801Z 20003KT 05/01 A304 RMK A01 T00450013  RH  079%=      5-min Rain = 0
KOD1 131802Z 20003KT 05/01 A304 RMK A01 T00450012  RH  079%=      5-min Rain = 0
KOD1 131803Z 18002KT 04/01 A304 RMK A01 T00440012  RH  080%=      5-min Rain = 0
KOD1 131804Z 23002KT 04/01 A304 RMK A01 T00440014  RH  080%=      5-min Rain = 0
KOD1 131805Z 22001KT 05/01 A304 RMK A01 T00450014  RH  081%=      5-min Rain = 0
KOD1 131806Z 18002KT 05/01 A3041 RMK A01 T00450014  RH  080%=      5-min Rain = 0
KOD1 131807Z 17003KT 05/01 A3041 RMK A01 T00450014  RH  080%=      5-min Rain = 0
KOD1 131808Z 17003KT 05/01 A3041 RMK A01 T00450013  RH  080%=      5-min Rain = 0
KOD1 131809Z 20004KT 05/01 A3041 RMK A01 T00450013  RH  080%=      5-min Rain = 0
KOD1 131810Z 21004KT 05/01 A3041 RMK A01 T00450013  RH  080%=      5-min Rain = 0
KOD1 131811Z 21005KT 05/01 A3041 RMK A01 T00450013  RH  080%=      5-min Rain = 0
KOD1 131812Z 21003KT 05/01 A3041 RMK A01 T00450013  RH  080%=      5-min Rain = 0
KOD1 131813Z 19002KT 05/01 A304 RMK A01 T00450013  RH  080%=      5-min Rain = 0
KOD1 131814Z 14002KT 05/01 A304 RMK A01 T00450013  RH  080%=      5-min Rain = 0
KOD1 131815Z 16005KT 05/01 A304 RMK A01 T00450014  RH  080%=      5-min Rain = 0
KOD1 131816Z 15005KT 05/01 A304 RMK A01 T00460013  RH  079%=      5-min Rain = 0
KOD1 131817Z 16004KT 05/01 A3041 RMK A01 T00460014  RH  080%=      5-min Rain = 0
KOD1 131818Z 17002KT 05/01 A304 RMK A01 T00470013  RH  079%=      5-min Rain = 0
KOD1 131819Z 17002KT 05/01 A304 RMK A01 T00470013  RH  079%=      5-min Rain = 0
KOD1 131820Z 16003KT 05/01 A304 RMK A01 T00470013  RH  079%=      5-min Rain = 0
KOD1 131821Z 14005KT 05/01 A304 RMK A01 T00470014  RH  079%=      5-min Rain = 0
KOD1 131822Z 15005KT 05/01 A304 RMK A01 T00470013  RH  078%=      5-min Rain = 0
KOD1 131823Z 15006KT 05/01 A304 RMK A01 T00470013  RH  078%=      5-min Rain = 0
KOD1 131824Z 15006KT 05/01 A304 RMK A01 T00470013  RH  079%=      5-min Rain = 0
KOD1 131825Z 16006KT 05/01 A304 RMK A01 T00470013  RH  079%=      5-min Rain = 0
KOD1 131826Z 16005KT 05/01 A304 RMK A01 T00470014  RH  079%=      5-min Rain = 0
KOD1 131827Z 15004KT 05/01 A304 RMK A01 T00460013  RH  079%=      5-min Rain = 0
KOD1 131828Z 16004KT 05/01 A304 RMK A01 T00460013  RH  079%=      5-min Rain = 0
KOD1 131829Z 15004KT 05/01 A304 RMK A01 T00450013  RH  079%=      5-min Rain = 0
KOD1 131830Z 16005KT 05/01 A304 RMK A01 T00460014  RH  080%=      5-min Rain = 0
KOD1 131831Z 16005KT 05/02 A304 RMK A01 T00470015  RH  080%=      5-min Rain = 0
KOD1 131832Z 16005KT 05/01 A3039 RMK A01 T00470014  RH  079%=      5-min Rain = 0
KOD1 131833Z 15004KT 05/02 A3039 RMK A01 T00480015  RH  079%=      5-min Rain = 0
KOD1 131834Z 15005KT 05/01 A3039 RMK A01 T00480013  RH  078%=      5-min Rain = 0
KOD1 131835Z 16005KT 05/01 A3039 RMK A01 T00480013  RH  078%=      5-min Rain = 0
KOD1 131836Z 18005KT 05/01 A3039 RMK A01 T00490013  RH  078%=      5-min Rain = 0
KOD1 131837Z 16007KT 05/01 A3039 RMK A01 T00490014  RH  078%=      5-min Rain = 0
KOD1 131838Z 16008KT 05/01 A3039 RMK A01 T00500014  RH  078%=      5-min Rain = 0
KOD1 131839Z 16006KT 05/01 A3039 RMK A01 T00490014  RH  078%=      5-min Rain = 0
KOD1 131840Z 17006KT 05/02 A3039 RMK A01 T00500016  RH  079%=      5-min Rain = 0
KOD1 131841Z 16005KT 05/02 A3039 RMK A01 T00500015  RH  078%=      5-min Rain = 0
KOD1 131842Z 17005KT 05/01 A3039 RMK A01 T00490014  RH  078%=      5-min Rain = 0
KOD1 131843Z 16005KT 05/01 A3039 RMK A01 T00490014  RH  078%=      5-min Rain = 0
KOD1 131844Z 16006KT 05/02 A3039 RMK A01 T00490015  RH  079%=      5-min Rain = 0
KOD1 131845Z 15004KT 05/02 A3039 RMK A01 T00500015  RH  078%=      5-min Rain = 0
KOD1 131846Z 16005KT 05/02 A3038 RMK A01 T00510015  RH  078%=      5-min Rain = 0
KOD1 131847Z 17005KT 05/02 A3038 RMK A01 T00510016  RH  078%=      5-min Rain = 0
KOD1 131848Z 17006KT 05/02 A3038 RMK A01 T00530017  RH  078%=      5-min Rain = 0
KOD1 131849Z 16006KT 05/02 A3038 RMK A01 T00540015  RH  076%=      5-min Rain = 0
KOD1 131850Z 14006KT 05/02 A3038 RMK A01 T00540017  RH  077%=      5-min Rain = 0
KOD1 131851Z 16007KT 06/02 A3038 RMK A01 T00550018  RH  077%=      5-min Rain = 0
KOD1 131852Z 16008KT 06/02 A3038 RMK A01 T00560017  RH  076%=      5-min Rain = 0
KOD1 131853Z 15006KT 06/02 A3038 RMK A01 T00550018  RH  077%=      5-min Rain = 0
KOD1 131854Z 16005KT 06/02 A3038 RMK A01 T00550018  RH  077%=      5-min Rain = 0
KOD1 131855Z 15005KT 05/02 A3038 RMK A01 T00540018  RH  077%=      5-min Rain = 0
KOD1 131856Z 15005KT 05/02 A3038 RMK A01 T00540018  RH  078%=      5-min Rain = 0
KOD1 131857Z 15006KT 05/02 A3038 RMK A01 T00540019  RH  078%=      5-min Rain = 0
KOD1 131858Z 13006KT 06/02 A3038 RMK A01 T00550018  RH  077%=      5-min Rain = 0
KOD1 131859Z 13007KT 06/02 A3038 RMK A01 T00550018  RH  077%=      5-min Rain = 0
KOD1 131900Z 16007KT 06/02 A3037 RMK A01 T00560020  RH  078%=      5-min Rain = 0
KOD1 131901Z 15009KT 06/02 A3037 RMK A01 T00570021  RH  077%=      5-min Rain = 0
KOD1 131902Z 15007KT 06/02 A3038 RMK A01 T00580020  RH  077%=      5-min Rain = 0
KOD1 131903Z 15006KT 06/02 A3038 RMK A01 T00570019  RH  076%=      5-min Rain = 0
KOD1 131904Z 14004KT 06/02 A3037 RMK A01 T00570020  RH  077%=      5-min Rain = 0
KOD1 131905Z 14005KT 06/02 A3037 RMK A01 T00570020  RH  077%=      5-min Rain = 0
KOD1 131906Z 15004KT 06/02 A3037 RMK A01 T00570020  RH  077%=      5-min Rain = 0
KOD1 131907Z 16006KT 06/02 A3037 RMK A01 T00570022  RH  078%=      5-min Rain = 0
KOD1 131908Z 18005KT 06/02 A3037 RMK A01 T00580022  RH  077%=      5-min Rain = 0
KOD1 131909Z 17005KT 06/02 A3037 RMK A01 T00580021  RH  077%=      5-min Rain = 0
KOD1 131910Z 16005KT 06/02 A3037 RMK A01 T00580021  RH  077%=      5-min Rain = 0
KOD1 131911Z 15003KT 06/02 A3037 RMK A01 T00580023  RH  078%=      5-min Rain = 0
KOD1 131912Z 18003KT 06/02 A3037 RMK A01 T00590023  RH  078%=      5-min Rain = 0
KOD1 131913Z 16005KT 06/02 A3037 RMK A01 T00600024  RH  077%=      5-min Rain = 0
KOD1 131914Z 15009KT 06/02 A3037 RMK A01 T00610022  RH  076%=      5-min Rain = 0
KOD1 131915Z 15007KT 06/02 A3037 RMK A01 T00600021  RH  076%=      5-min Rain = 0
KOD1 131916Z 16005KT 06/02 A3037 RMK A01 T00590021  RH  076%=      5-min Rain = 0
KOD1 131917Z 16004KT 06/02 A3037 RMK A01 T00590022  RH  077%=      5-min Rain = 0
KOD1 131918Z 16006KT 06/02 A3037 RMK A01 T00600023  RH  077%=      5-min Rain = 0
KOD1 131919Z 16005KT 06/02 A3037 RMK A01 T00600021  RH  076%=      5-min Rain = 0
KOD1 131920Z 16007KT 06/02 A3036 RMK A01 T00610023  RH  076%=      5-min Rain = 0
KOD1 131921Z 17006KT 06/02 A3036 RMK A01 T00620022  RH  076%=      5-min Rain = 0
KOD1 131922Z 18005KT 06/02 A3036 RMK A01 T00610021  RH  075%=      5-min Rain = 0
KOD1 131923Z 17004KT 06/02 A3036 RMK A01 T00620022  RH  076%=      5-min Rain = 0
KOD1 131924Z 14004KT 06/02 A3036 RMK A01 T00620023  RH  076%=      5-min Rain = 0
KOD1 131925Z 17004KT 06/02 A3035 RMK A01 T00630022  RH  075%=      5-min Rain = 0
KOD1 131926Z 19004KT 06/02 A3035 RMK A01 T00640022  RH  075%=      5-min Rain = 0
KOD1 131927Z 15003KT 07/02 A3035 RMK A01 T00650024  RH  075%=      5-min Rain = 0
KOD1 131928Z 13004KT 07/03 A3035 RMK A01 T00660025  RH  075%=      5-min Rain = 0
KOD1 131929Z 15007KT 07/03 A3035 RMK A01 T00680025  RH  074%=      5-min Rain = 0
KOD1 131930Z 15007KT 07/02 A3035 RMK A01 T00690024  RH  073%=      5-min Rain = 0
KOD1 131931Z 15007KT 07/03 A3035 RMK A01 T00690025  RH  073%=      5-min Rain = 0
KOD1 131932Z 16007KT 07/02 A3035 RMK A01 T00700024  RH  073%=      5-min Rain = 0
KOD1 131933Z 16008KT 07/02 A3035 RMK A01 T00680023  RH  073%=      5-min Rain = 0
KOD1 131934Z 14007KT 07/03 A3035 RMK A01 T00690025  RH  073%=      5-min Rain = 0
KOD1 131935Z 13006KT 07/02 A3035 RMK A01 T00690023  RH  072%=      5-min Rain = 0
KOD1 131936Z 15004KT 07/02 A3035 RMK A01 T00690024  RH  073%=      5-min Rain = 0
KOD1 131937Z 15006KT 07/03 A3034 RMK A01 T00700025  RH  073%=      5-min Rain = 0
KOD1 131938Z 16008KT 07/03 A3034 RMK A01 T00710025  RH  072%=      5-min Rain = 0
KOD1 131939Z 15006KT 07/03 A3034 RMK A01 T00710025  RH  073%=      5-min Rain = 0
KOD1 131940Z 13006KT 07/03 A3034 RMK A01 T00710027  RH  073%=      5-min Rain = 0
KOD1 131941Z 15005KT 07/03 A3034 RMK A01 T00720027  RH  073%=      5-min Rain = 0
KOD1 131942Z 15007KT 07/03 A3034 RMK A01 T00730028  RH  073%=      5-min Rain = 0
KOD1 131943Z 15005KT 07/03 A3034 RMK A01 T00730027  RH  072%=      5-min Rain = 0
KOD1 131944Z 16007KT 07/03 A3034 RMK A01 T00730027  RH  073%=      5-min Rain = 0
KOD1 131945Z 16006KT 08/03 A3034 RMK A01 T00750030  RH  073%=      5-min Rain = 0
KOD1 131946Z 15006KT 08/03 A3034 RMK A01 T00760028  RH  071%=      5-min Rain = 0
KOD1 131947Z 17006KT 08/03 A3034 RMK A01 T00760027  RH  071%=      5-min Rain = 0
KOD1 131948Z 13006G11KT 08/03 A3033 RMK A01 T00770029  RH  072%=      5-min Rain = 0
KOD1 131949Z 16007KT 08/03 A3034 RMK A01 T00790027  RH  070%=      5-min Rain = 0
KOD1 131950Z 17005KT 08/03 A3034 RMK A01 T00780027  RH  070%=      5-min Rain = 0
KOD1 131951Z 15005KT 08/03 A3034 RMK A01 T00780027  RH  070%=      5-min Rain = 0
KOD1 131952Z 15008KT 08/03 A3034 RMK A01 T00780027  RH  070%=      5-min Rain = 0
KOD1 131953Z 14007KT 08/03 A3034 RMK A01 T00780027  RH  070%=      5-min Rain = 0
KOD1 131954Z 15006KT 08/03 A3033 RMK A01 T00780028  RH  071%=      5-min Rain = 0
KOD1 131955Z 15007KT 08/03 A3033 RMK A01 T00780028  RH  071%=      5-min Rain = 0
KOD1 131956Z 15007KT 08/03 A3033 RMK A01 T00790029  RH  071%=      5-min Rain = 0
KOD1 131957Z 15008KT 08/03 A3033 RMK A01 T00800030  RH  070%=      5-min Rain = 0
KOD1 131958Z 17008KT 08/03 A3033 RMK A01 T00800030  RH  071%=      5-min Rain = 0
KOD1 131959Z 16007KT 08/03 A3033 RMK A01 T00790030  RH  071%=      5-min Rain = 0
KOD1 132000Z 16007KT 08/03 A3033 RMK A01 T00790030  RH  071%=      5-min Rain = 0
KOD1 132001Z 17008KT 08/03 A3033 RMK A01 T00800030  RH  071%=      5-min Rain = 0
KOD1 132002Z 16010KT 08/03 A3033 RMK A01 T00790029  RH  071%=      5-min Rain = 0
KOD1 132003Z 15008KT 08/03 A3033 RMK A01 T00780029  RH  071%=      5-min Rain = 0
KOD1 132004Z 14006KT 08/03 A3033 RMK A01 T00780030  RH  072%=      5-min Rain = 0
KOD1 132005Z 13007KT 08/03 A3032 RMK A01 T00790032  RH  072%=      5-min Rain = 0
KOD1 132006Z 17010KT 08/03 A3032 RMK A01 T00810032  RH  071%=      5-min Rain = 0
KOD1 132007Z 16008KT 08/03 A3032 RMK A01 T00820032  RH  071%=      5-min Rain = 0
KOD1 132008Z 17008KT 08/03 A3032 RMK A01 T00820032  RH  071%=      5-min Rain = 0
KOD1 132009Z 15007KT 08/03 A3032 RMK A01 T00820032  RH  071%=      5-min Rain = 0
KOD1 132010Z 16008KT 08/03 A3032 RMK A01 T00820032  RH  071%=      5-min Rain = 0
KOD1 132011Z 13008KT 08/03 A3032 RMK A01 T00820031  RH  070%=      5-min Rain = 0
KOD1 132012Z 15007KT 08/03 A3032 RMK A01 T00830031  RH  070%=      5-min Rain = 0
KOD1 132013Z 15008KT 08/03 A3032 RMK A01 T00840031  RH  069%=      5-min Rain = 0
KOD1 132014Z 16010KT 08/03 A3032 RMK A01 T00840031  RH  069%=      5-min Rain = 0
KOD1 132015Z 16009KT 08/03 A3032 RMK A01 T00840031  RH  069%=      5-min Rain = 0
KOD1 132016Z 15009KT 09/03 A3032 RMK A01 T00850033  RH  070%=      5-min Rain = 0
KOD1 132017Z 17010KT 09/03 A3032 RMK A01 T00870034  RH  069%=      5-min Rain = 0
KOD1 132018Z 17008KT 09/03 A3032 RMK A01 T00870033  RH  069%=      5-min Rain = 0
KOD1 132019Z 17009KT 09/03 A3032 RMK A01 T00870032  RH  069%=      5-min Rain = 0
KOD1 132020Z 17007KT 09/03 A3032 RMK A01 T00870032  RH  069%=      5-min Rain = 0
KOD1 132021Z 15007KT 09/03 A3032 RMK A01 T00860032  RH  069%=      5-min Rain = 0
KOD1 132022Z 16005KT 09/03 A3032 RMK A01 T00870033  RH  069%=      5-min Rain = 0
KOD1 132023Z 15007KT 09/03 A3031 RMK A01 T00890034  RH  069%=      5-min Rain = 0
KOD1 132024Z 15006KT 09/03 A3031 RMK A01 T00890032  RH  068%=      5-min Rain = 0
KOD1 132025Z 17007KT 09/03 A3031 RMK A01 T00890034  RH  068%=      5-min Rain = 0
KOD1 132026Z 18008KT 09/03 A3031 RMK A01 T00900034  RH  068%=      5-min Rain = 0
KOD1 132027Z 15004KT 09/03 A3032 RMK A01 T00910034  RH  068%=      5-min Rain = 0
KOD1 132028Z 16004KT 09/03 A3031 RMK A01 T00910033  RH  067%=      5-min Rain = 0
KOD1 132029Z 17006KT 09/03 A3031 RMK A01 T00910034  RH  067%=      5-min Rain = 0
KOD1 132030Z 16010KT 09/03 A3031 RMK A01 T00910034  RH  067%=      5-min Rain = 0
KOD1 132031Z 17008KT 09/03 A3031 RMK A01 T00900033  RH  067%=      5-min Rain = 0
KOD1 132032Z 18007KT 09/03 A3031 RMK A01 T00890034  RH  068%=      5-min Rain = 0
KOD1 132033Z 17009KT 09/04 A3031 RMK A01 T00900036  RH  069%=      5-min Rain = 0
KOD1 132034Z 17009KT 09/04 A3031 RMK A01 T00910037  RH  069%=      5-min Rain = 0
KOD1 132035Z 17008KT 09/04 A3031 RMK A01 T00920037  RH  068%=      5-min Rain = 0
KOD1 132036Z 18006KT 09/04 A3032 RMK A01 T00920036  RH  068%=      5-min Rain = 0
KOD1 132037Z 17008KT 09/04 A3032 RMK A01 T00930037  RH  068%=      5-min Rain = 0
KOD1 132038Z 17008KT 09/04 A3031 RMK A01 T00940035  RH  067%=      5-min Rain = 0
KOD1 132039Z 18008KT 09/04 A3031 RMK A01 T00930036  RH  067%=      5-min Rain = 0
KOD1 132040Z 19007KT 09/04 A3031 RMK A01 T00910035  RH  068%=      5-min Rain = 0
KOD1 132041Z 18007KT 09/04 A3031 RMK A01 T00900035  RH  068%=      5-min Rain = 0
KOD1 132042Z 17008KT 09/04 A3031 RMK A01 T00900036  RH  069%=      5-min Rain = 0
KOD1 132043Z 17008KT 09/04 A3031 RMK A01 T00910036  RH  069%=      5-min Rain = 0
KOD1 132044Z 18007KT 09/04 A3031 RMK A01 T00920037  RH  068%=      5-min Rain = 0
KOD1 132045Z 18009KT 09/04 A3031 RMK A01 T00940038  RH  068%=      5-min Rain = 0
KOD1 132046Z 19008KT 10/04 A3031 RMK A01 T00960036  RH  066%=      5-min Rain = 0
KOD1 132047Z 17008KT 09/04 A303 RMK A01 T00930036  RH  067%=      5-min Rain = 0
KOD1 132048Z 14007KT 09/04 A303 RMK A01 T00930037  RH  068%=      5-min Rain = 0
KOD1 132049Z 15006KT 09/04 A303 RMK A01 T00940037  RH  067%=      5-min Rain = 0
KOD1 132050Z 15006KT 10/04 A303 RMK A01 T00960038  RH  067%=      5-min Rain = 0
KOD1 132051Z 16008KT 10/04 A303 RMK A01 T00980039  RH  067%=      5-min Rain = 0
KOD1 132052Z 15009KT 10/04 A303 RMK A01 T01010038  RH  065%=      5-min Rain = 0
KOD1 132053Z 16009KT 10/04 A303 RMK A01 T01000037  RH  065%=      5-min Rain = 0
KOD1 132054Z 16009KT 10/04 A303 RMK A01 T01000038  RH  066%=      5-min Rain = 0
KOD1 132055Z 15008KT 10/04 A303 RMK A01 T00990038  RH  066%=      5-min Rain = 0
KOD1 132056Z 17006KT 10/04 A303 RMK A01 T00990039  RH  066%=      5-min Rain = 0
KOD1 132057Z 14008KT 10/04 A303 RMK A01 T00990038  RH  066%=      5-min Rain = 0
KOD1 132058Z 14007KT 10/04 A303 RMK A01 T00990039  RH  066%=      5-min Rain = 0
KOD1 132059Z 16009KT 10/04 A303 RMK A01 T01010041  RH  066%=      5-min Rain = 0
KOD1 132100Z 17009KT 10/04 A303 RMK A01 T01030041  RH  066%=      5-min Rain = 0
KOD1 132101Z 17007KT 10/04 A303 RMK A01 T01040040  RH  065%=      5-min Rain = 0
KOD1 132102Z 16008KT 10/04 A303 RMK A01 T01030040  RH  065%=      5-min Rain = 0
KOD1 132103Z 18009KT 11/04 A303 RMK A01 T01050043  RH  066%=      5-min Rain = 0
KOD1 132104Z 17008KT 11/04 A303 RMK A01 T01070041  RH  064%=      5-min Rain = 0
KOD1 132105Z 16005KT 11/04 A303 RMK A01 T01060042  RH  065%=      5-min Rain = 0
KOD1 132106Z 16008KT 11/04 A303 RMK A01 T01070042  RH  064%=      5-min Rain = 0
KOD1 132107Z 15007KT 11/04 A303 RMK A01 T01070041  RH  064%=      5-min Rain = 0
KOD1 132108Z 18006KT 11/04 A303 RMK A01 T01060041  RH  064%=      5-min Rain = 0
KOD1 132109Z 18005KT 11/04 A303 RMK A01 T01060041  RH  064%=      5-min Rain = 0
KOD1 132110Z 16006KT 11/04 A303 RMK A01 T01050040  RH  064%=      5-min Rain = 0
KOD1 132111Z 15005KT 10/04 A303 RMK A01 T01040040  RH  064%=      5-min Rain = 0
KOD1 132112Z 15006KT 11/04 A303 RMK A01 T01060041  RH  064%=      5-min Rain = 0
KOD1 132113Z 16006KT 11/04 A303 RMK A01 T01070042  RH  064%=      5-min Rain = 0
KOD1 132114Z 16009KT 11/04 A303 RMK A01 T01100042  RH  063%=      5-min Rain = 0
KOD1 132115Z 16009KT 11/04 A303 RMK A01 T01100040  RH  062%=      5-min Rain = 0
KOD1 132116Z 17008KT 11/04 A303 RMK A01 T01100041  RH  062%=      5-min Rain = 0
KOD1 132117Z 18008KT 11/04 A303 RMK A01 T01090040  RH  063%=      5-min Rain = 0
KOD1 132118Z 18006KT 11/04 A303 RMK A01 T01090041  RH  063%=      5-min Rain = 0
KOD1 132119Z 16006KT 11/04 A303 RMK A01 T01090042  RH  063%=      5-min Rain = 0
KOD1 132120Z 16005G10KT 11/04 A303 RMK A01 T01100042  RH  063%=      5-min Rain = 0
KOD1 132121Z 16011KT 11/04 A303 RMK A01 T01110042  RH  062%=      5-min Rain = 0
KOD1 132122Z 16007KT 11/04 A303 RMK A01 T01110042  RH  062%=      5-min Rain = 0
KOD1 132123Z 15008KT 11/04 A303 RMK A01 T01120043  RH  062%=      5-min Rain = 0
KOD1 132124Z 15007KT 11/04 A303 RMK A01 T01110041  RH  062%=      5-min Rain = 0
KOD1 132125Z 14008KT 11/04 A303 RMK A01 T01120041  RH  062%=      5-min Rain = 0
KOD1 132126Z 14007KT 11/04 A303 RMK A01 T01110041  RH  062%=      5-min Rain = 0
KOD1 132127Z 15008KT 11/04 A303 RMK A01 T01120041  RH  062%=      5-min Rain = 0
KOD1 132128Z 14008KT 11/04 A303 RMK A01 T01110040  RH  062%=      5-min Rain = 0
KOD1 132129Z 15008KT 11/04 A303 RMK A01 T01110041  RH  062%=      5-min Rain = 0
KOD1 132130Z 14007KT 11/04 A303 RMK A01 T01120041  RH  062%=      5-min Rain = 0
KOD1 132131Z 14008KT 11/04 A303 RMK A01 T01130042  RH  062%=      5-min Rain = 0
KOD1 132132Z 16010KT 11/04 A303 RMK A01 T01140042  RH  061%=      5-min Rain = 0
KOD1 132133Z 16009KT 11/04 A303 RMK A01 T01140041  RH  061%=      5-min Rain = 0
KOD1 132134Z 17009KT 11/04 A3029 RMK A01 T01130040  RH  061%=      5-min Rain = 0
KOD1 132135Z 16007KT 11/04 A3029 RMK A01 T01120041  RH  061%=      5-min Rain = 0
KOD1 132136Z 14004KT 11/04 A3029 RMK A01 T01130041  RH  061%=      5-min Rain = 0
KOD1 132137Z 15005G10KT 11/04 A3029 RMK A01 T01130041  RH  061%=      5-min Rain = 0
KOD1 132138Z 15009KT 12/04 A3029 RMK A01 T01150041  RH  061%=      5-min Rain = 0
KOD1 132139Z 15007KT 12/04 A3029 RMK A01 T01150041  RH  060%=      5-min Rain = 0
KOD1 132140Z 15009KT 12/04 A3029 RMK A01 T01150041  RH  060%=      5-min Rain = 0
KOD1 132141Z 14006KT 12/04 A3029 RMK A01 T01160041  RH  060%=      5-min Rain = 0
KOD1 132142Z 16007KT 12/04 A3029 RMK A01 T01160041  RH  060%=      5-min Rain = 0
KOD1 132143Z 18005KT 12/04 A3029 RMK A01 T01160043  RH  061%=      5-min Rain = 0
KOD1 132144Z 15006KT 12/04 A3029 RMK A01 T01180042  RH  060%=      5-min Rain = 0
KOD1 132145Z 14008KT 12/04 A3029 RMK A01 T01180041  RH  059%=      5-min Rain = 0
KOD1 132146Z 14008KT 12/04 A3029 RMK A01 T01170041  RH  060%=      5-min Rain = 0
KOD1 132147Z 16007KT 12/04 A3028 RMK A01 T01170043  RH  060%=      5-min Rain = 0
KOD1 132148Z 16010KT 12/04 A3028 RMK A01 T01190043  RH  060%=      5-min Rain = 0
KOD1 132149Z 17009KT 12/04 A3028 RMK A01 T01180042  RH  060%=      5-min Rain = 0
KOD1 132150Z 17008KT 12/04 A3028 RMK A01 T01170042  RH  060%=      5-min Rain = 0
KOD1 132151Z 16008KT 12/04 A3028 RMK A01 T01170042  RH  060%=      5-min Rain = 0
KOD1 132152Z 14010KT 12/04 A3028 RMK A01 T01170042  RH  060%=      5-min Rain = 0
KOD1 132153Z 14008KT 12/04 A3028 RMK A01 T01170042  RH  060%=      5-min Rain = 0
KOD1 132154Z 16010KT 12/04 A3028 RMK A01 T01170042  RH  060%=      5-min Rain = 0
KOD1 132155Z 16009KT 12/04 A3028 RMK A01 T01170041  RH  060%=      5-min Rain = 0
KOD1 132156Z 15009KT 12/04 A3028 RMK A01 T01160042  RH  060%=      5-min Rain = 0
KOD1 132157Z 15008KT 12/04 A3028 RMK A01 T01160041  RH  060%=      5-min Rain = 0
KOD1 132158Z 16008KT 12/04 A3028 RMK A01 T01160042  RH  060%=      5-min Rain = 0
KOD1 132159Z 16007KT 12/04 A3029 RMK A01 T01180043  RH  060%=      5-min Rain = 0
KOD1 132200Z 16007KT 12/04 A3029 RMK A01 T01190044  RH  060%=      5-min Rain = 0
KOD1 132201Z 17010KT 12/04 A3029 RMK A01 T01200044  RH  060%=      5-min Rain = 0
KOD1 132202Z 17009KT 12/05 A3029 RMK A01 T01200045  RH  060%=      5-min Rain = 0
KOD1 132203Z 18007KT 12/05 A3029 RMK A01 T01200045  RH  060%=      5-min Rain = 0
KOD1 132204Z 17007KT 12/05 A3029 RMK A01 T01190046  RH  061%=      5-min Rain = 0
KOD1 132205Z 16008KT 12/05 A3029 RMK A01 T01200047  RH  061%=      5-min Rain = 0
KOD1 132206Z 16010KT 12/05 A3029 RMK A01 T01190045  RH  060%=      5-min Rain = 0
KOD1 132207Z 17010KT 12/04 A3028 RMK A01 T01180044  RH  061%=      5-min Rain = 0
KOD1 132208Z 17009KT 12/04 A3029 RMK A01 T01170044  RH  061%=      5-min Rain = 0
KOD1 132209Z 17009KT 12/04 A3029 RMK A01 T01160044  RH  061%=      5-min Rain = 0
KOD1 132210Z 18010KT 12/04 A3029 RMK A01 T01150044  RH  062%=      5-min Rain = 0
KOD1 132211Z 17011KT 11/04 A3028 RMK A01 T01140044  RH  062%=      5-min Rain = 0
KOD1 132212Z 17011KT 12/05 A3028 RMK A01 T01150046  RH  063%=      5-min Rain = 0
KOD1 132213Z 17012KT 12/05 A3028 RMK A01 T01160048  RH  063%=      5-min Rain = 0
KOD1 132214Z 18011KT 12/05 A3028 RMK A01 T01170047  RH  062%=      5-min Rain = 0
KOD1 132215Z 18010KT 12/05 A3028 RMK A01 T01190047  RH  061%=      5-min Rain = 0
KOD1 132216Z 17009KT 12/05 A3028 RMK A01 T01200046  RH  061%=      5-min Rain = 0
KOD1 132217Z 16010KT 12/05 A3028 RMK A01 T01210046  RH  060%=      5-min Rain = 0
KOD1 132218Z 17011KT 12/05 A3028 RMK A01 T01210046  RH  060%=      5-min Rain = 0
KOD1 132219Z 17010KT 12/05 A3028 RMK A01 T01210046  RH  060%=      5-min Rain = 0
KOD1 132220Z 18009KT 12/05 A3028 RMK A01 T01200046  RH  060%=      5-min Rain = 0
KOD1 132221Z 17008KT 12/05 A3028 RMK A01 T01210046  RH  060%=      5-min Rain = 0
KOD1 132222Z 16009KT 12/05 A3028 RMK A01 T01200046  RH  061%=      5-min Rain = 0
KOD1 132223Z 17009KT 12/05 A3028 RMK A01 T01200047  RH  061%=      5-min Rain = 0
KOD1 132224Z 17010KT 12/05 A3028 RMK A01 T01210047  RH  061%=      5-min Rain = 0
KOD1 132225Z 18009KT 12/05 A3028 RMK A01 T01210047  RH  060%=      5-min Rain = 0
KOD1 132226Z 19008KT 12/05 A3028 RMK A01 T01210047  RH  061%=      5-min Rain = 0
KOD1 132227Z 19010KT 12/05 A3028 RMK A01 T01200047  RH  061%=      5-min Rain = 0
KOD1 132228Z 17011KT 12/05 A3028 RMK A01 T01190047  RH  061%=      5-min Rain = 0
KOD1 132229Z 17011KT 12/05 A3028 RMK A01 T01180046  RH  061%=      5-min Rain = 0
KOD1 132230Z 16011KT 12/05 A3028 RMK A01 T01180046  RH  061%=      5-min Rain = 0
KOD1 132231Z 16009KT 12/05 A3028 RMK A01 T01180045  RH  061%=      5-min Rain = 0
KOD1 132232Z 17008KT 12/05 A3028 RMK A01 T01170046  RH  061%=      5-min Rain = 0
KOD1 132233Z 18009KT 12/05 A3028 RMK A01 T01180047  RH  062%=      5-min Rain = 0
KOD1 132234Z 18012KT 12/05 A3028 RMK A01 T01190046  RH  061%=      5-min Rain = 0
KOD1 132235Z 18010KT 12/05 A3028 RMK A01 T01190046  RH  061%=      5-min Rain = 0
KOD1 132236Z 19008KT 12/05 A3028 RMK A01 T01190046  RH  061%=      5-min Rain = 0
KOD1 132237Z 18007KT 12/05 A3028 RMK A01 T01180046  RH  061%=      5-min Rain = 0
KOD1 132238Z 19009KT 12/05 A3029 RMK A01 T01190048  RH  062%=      5-min Rain = 0
KOD1 132239Z 20010KT 12/05 A3029 RMK A01 T01190048  RH  062%=      5-min Rain = 0
KOD1 132240Z 20012KT 12/05 A3028 RMK A01 T01190049  RH  062%=      5-min Rain = 0
KOD1 132241Z 18010KT 12/05 A3028 RMK A01 T01190048  RH  062%=      5-min Rain = 0
KOD1 132242Z 19010KT 12/05 A3028 RMK A01 T01190049  RH  062%=      5-min Rain = 0
KOD1 132243Z 18009KT 12/05 A3028 RMK A01 T01200049  RH  062%=      5-min Rain = 0
KOD1 132244Z 18010KT 12/05 A3028 RMK A01 T01200049  RH  062%=      5-min Rain = 0
KOD1 132245Z 19010KT 12/05 A3029 RMK A01 T01200049  RH  062%=      5-min Rain = 0
KOD1 132246Z 19008KT 12/05 A3028 RMK A01 T01200049  RH  062%=      5-min Rain = 0
KOD1 132247Z 20009KT 12/05 A3028 RMK A01 T01200048  RH  061%=      5-min Rain = 0
KOD1 132248Z 19009KT 12/05 A3028 RMK A01 T01180047  RH  062%=      5-min Rain = 0
KOD1 132249Z 20007KT 12/05 A3028 RMK A01 T01180048  RH  062%=      5-min Rain = 0
KOD1 132250Z 19006KT 12/05 A3028 RMK A01 T01180047  RH  062%=      5-min Rain = 0
KOD1 132251Z 17007KT 12/05 A3028 RMK A01 T01180047  RH  062%=      5-min Rain = 0
KOD1 132252Z 17008KT 12/05 A3028 RMK A01 T01180047  RH  062%=      5-min Rain = 0
KOD1 132253Z 17006KT 12/05 A3028 RMK A01 T01180047  RH  062%=      5-min Rain = 0
KOD1 132254Z 19005KT 12/05 A3028 RMK A01 T01180047  RH  062%=      5-min Rain = 0
KOD1 132255Z 20004KT 12/05 A3028 RMK A01 T01180047  RH  062%=      5-min Rain = 0
KOD1 132256Z 18007KT 12/05 A3029 RMK A01 T01180048  RH  062%=      5-min Rain = 0
KOD1 132257Z 17009KT 12/05 A3029 RMK A01 T01180047  RH  062%=      5-min Rain = 0
KOD1 132258Z 19009KT 12/05 A3028 RMK A01 T01180047  RH  062%=      5-min Rain = 0
KOD1 132259Z 18007KT 12/05 A3028 RMK A01 T01170047  RH  062%=      5-min Rain = 0
KOD1 132300Z 18006KT 12/05 A3028 RMK A01 T01170047  RH  062%=      5-min Rain = 0
KOD1 132301Z 18009KT 12/05 A3028 RMK A01 T01170048  RH  062%=      5-min Rain = 0
KOD1 132302Z 18009KT 12/05 A3028 RMK A01 T01170048  RH  062%=      5-min Rain = 0
KOD1 132303Z 18009KT 12/05 A3028 RMK A01 T01170048  RH  063%=      5-min Rain = 0
KOD1 132304Z 19008KT 12/05 A3028 RMK A01 T01170048  RH  063%=      5-min Rain = 0
KOD1 132305Z 16008KT 12/05 A3028 RMK A01 T01170047  RH  062%=      5-min Rain = 0
KOD1 132306Z 16006KT 12/05 A3028 RMK A01 T01170047  RH  062%=      5-min Rain = 0
KOD1 132307Z 15006KT 12/05 A3028 RMK A01 T01170047  RH  062%=      5-min Rain = 0
KOD1 132308Z 17007KT 12/05 A3028 RMK A01 T01170048  RH  062%=      5-min Rain = 0
KOD1 132309Z 17006KT 12/05 A3028 RMK A01 T01170048  RH  062%=      5-min Rain = 0
KOD1 132310Z 18006KT 12/05 A3028 RMK A01 T01170048  RH  063%=      5-min Rain = 0
KOD1 132311Z 17006KT 12/05 A3028 RMK A01 T01170048  RH  063%=      5-min Rain = 0
KOD1 132312Z 17007KT 12/05 A3028 RMK A01 T01160048  RH  063%=      5-min Rain = 0
KOD1 132313Z 17007KT 12/05 A3028 RMK A01 T01160048  RH  063%=      5-min Rain = 0
KOD1 132314Z 16007KT 12/05 A3028 RMK A01 T01160048  RH  063%=      5-min Rain = 0
KOD1 132315Z 16009KT 12/05 A3028 RMK A01 T01160048  RH  063%=      5-min Rain = 0
KOD1 132316Z 17010KT 12/05 A3028 RMK A01 T01160048  RH  063%=      5-min Rain = 0
KOD1 132317Z 16009KT 12/05 A3028 RMK A01 T01160047  RH  063%=      5-min Rain = 0
KOD1 132318Z 16009KT 12/05 A3028 RMK A01 T01150047  RH  063%=      5-min Rain = 0
KOD1 132319Z 16007KT 12/05 A3028 RMK A01 T01150047  RH  063%=      5-min Rain = 0
KOD1 132320Z 15007KT 12/05 A3028 RMK A01 T01150047  RH  063%=      5-min Rain = 0
KOD1 132321Z 16007KT 11/05 A3028 RMK A01 T01140047  RH  063%=      5-min Rain = 0
KOD1 132322Z 16007KT 12/05 A3028 RMK A01 T01150047  RH  063%=      5-min Rain = 0
KOD1 132323Z 16007KT 12/05 A3028 RMK A01 T01150047  RH  063%=      5-min Rain = 0
KOD1 132324Z 17007KT 11/05 A3028 RMK A01 T01140047  RH  063%=      5-min Rain = 0
KOD1 132325Z 16005KT 11/05 A3028 RMK A01 T01140047  RH  064%=      5-min Rain = 0
KOD1 132326Z 16005KT 11/05 A3028 RMK A01 T01130047  RH  064%=      5-min Rain = 0
KOD1 132327Z 17007KT 11/05 A3028 RMK A01 T01140047  RH  064%=      5-min Rain = 0
KOD1 132328Z 17007KT 11/05 A3028 RMK A01 T01130048  RH  064%=      5-min Rain = 0
KOD1 132329Z 17006KT 11/05 A3028 RMK A01 T01130048  RH  064%=      5-min Rain = 0
KOD1 132330Z 17007KT 11/05 A3028 RMK A01 T01140048  RH  064%=      5-min Rain = 0
KOD1 132331Z 17007KT 11/05 A3028 RMK A01 T01140048  RH  064%=      5-min Rain = 0
KOD1 132332Z 17006KT 11/05 A3028 RMK A01 T01140048  RH  064%=      5-min Rain = 0
KOD1 132333Z 16007KT 12/05 A3028 RMK A01 T01150048  RH  064%=      5-min Rain = 0
KOD1 132334Z 15008KT 12/05 A3028 RMK A01 T01150048  RH  063%=      5-min Rain = 0
KOD1 132335Z 15006KT 12/05 A3028 RMK A01 T01150047  RH  063%=      5-min Rain = 0
KOD1 132336Z 15006KT 12/05 A3028 RMK A01 T01150047  RH  063%=      5-min Rain = 0
KOD1 132337Z 15007KT 12/05 A3028 RMK A01 T01150047  RH  063%=      5-min Rain = 0
KOD1 132338Z 16006KT 12/05 A3028 RMK A01 T01150047  RH  063%=      5-min Rain = 0
KOD1 132339Z 16006KT 12/05 A3028 RMK A01 T01150048  RH  063%=      5-min Rain = 0
KOD1 132340Z 16006KT 12/05 A3028 RMK A01 T01160048  RH  063%=      5-min Rain = 0
KOD1 132341Z 15005KT 12/05 A3028 RMK A01 T01160048  RH  063%=      5-min Rain = 0
KOD1 132342Z 15006KT 12/05 A3028 RMK A01 T01160048  RH  063%=      5-min Rain = 0
KOD1 132343Z 14006KT 12/05 A3028 RMK A01 T01160048  RH  063%=      5-min Rain = 0
KOD1 132344Z 14007KT 12/05 A3028 RMK A01 T01150047  RH  063%=      5-min Rain = 0
KOD1 132345Z 14006KT 12/05 A3028 RMK A01 T01150047  RH  063%=      5-min Rain = 0
KOD1 132346Z 14006KT 11/05 A3028 RMK A01 T01140047  RH  063%=      5-min Rain = 0
KOD1 132347Z 14005KT 11/05 A3028 RMK A01 T01140047  RH  063%=      5-min Rain = 0
KOD1 132348Z 15007KT 11/05 A3028 RMK A01 T01140047  RH  063%=      5-min Rain = 0
KOD1 132349Z 16007KT 11/05 A3028 RMK A01 T01130047  RH  064%=      5-min Rain = 0
KOD1 132350Z 15008KT 11/05 A3028 RMK A01 T01120047  RH  064%=      5-min Rain = 0
KOD1 132351Z 16008KT 11/05 A3027 RMK A01 T01120048  RH  065%=      5-min Rain = 0
KOD1 132352Z 16008KT 11/05 A3027 RMK A01 T01110047  RH  065%=      5-min Rain = 0
KOD1 132353Z 16008KT 11/05 A3027 RMK A01 T01100047  RH  065%=      5-min Rain = 0
KOD1 132354Z 15008KT 11/05 A3027 RMK A01 T01100047  RH  065%=      5-min Rain = 0
KOD1 132355Z 16009KT 11/05 A3027 RMK A01 T01090048  RH  066%=      5-min Rain = 0
KOD1 132356Z 15008KT 11/05 A3028 RMK A01 T01090047  RH  066%=      5-min Rain = 0
KOD1 132357Z 14007KT 11/05 A3028 RMK A01 T01080047  RH  066%=      5-min Rain = 0
KOD1 132358Z 14007KT 11/05 A3028 RMK A01 T01080046  RH  066%=      5-min Rain = 0
KOD1 132359Z 13007KT 11/05 A3028 RMK A01 T01070046  RH  066%=      5-min Rain = 0
KOD1 140000Z 13006KT 11/05 A3028 RMK A01 T01070045  RH  066%=      5-min Rain = 0
KOD1 140001Z 13006KT 11/05 A3028 RMK A01 T01060045  RH  066%=      5-min Rain = 0
KOD1 140002Z 12006KT 11/05 A3028 RMK A01 T01060045  RH  066%=      5-min Rain = 0
KOD1 140003Z 12005KT 11/04 A3028 RMK A01 T01050044  RH  066%=      5-min Rain = 0
KOD1 140004Z 11006KT 10/04 A3028 RMK A01 T01040044  RH  066%=      5-min Rain = 0
KOD1 140005Z 12005KT 10/04 A3028 RMK A01 T01030043  RH  066%=      5-min Rain = 0
KOD1 140006Z 12006KT 10/04 A3028 RMK A01 T01020043  RH  067%=      5-min Rain = 0
KOD1 140007Z 12006KT 10/04 A3028 RMK A01 T01020043  RH  067%=      5-min Rain = 0
KOD1 140008Z 12007KT 10/04 A3027 RMK A01 T01010044  RH  067%=      5-min Rain = 0
KOD1 140009Z 13008KT 10/04 A3027 RMK A01 T01010044  RH  068%=      5-min Rain = 0
KOD1 140010Z 13007KT 10/04 A3027 RMK A01 T01010044  RH  068%=      5-min Rain = 0
KOD1 140011Z 13006KT 10/04 A3027 RMK A01 T01000044  RH  068%=      5-min Rain = 0
KOD1 140012Z 13006KT 10/04 A3027 RMK A01 T01000043  RH  068%=      5-min Rain = 0
KOD1 140013Z 13007KT 10/04 A3027 RMK A01 T00990043  RH  068%=      5-min Rain = 0
KOD1 140014Z 14008KT 10/04 A3027 RMK A01 T00990044  RH  069%=      5-min Rain = 0
KOD1 140015Z 13008KT 10/04 A3027 RMK A01 T00990044  RH  069%=      5-min Rain = 0
KOD1 140016Z 13007KT 10/04 A3027 RMK A01 T00980043  RH  069%=      5-min Rain = 0
KOD1 140017Z 13007KT 10/04 A3027 RMK A01 T00970043  RH  069%=      5-min Rain = 0
KOD1 140018Z 13007KT 10/04 A3027 RMK A01 T00970044  RH  069%=      5-min Rain = 0
KOD1 140019Z 13007KT 10/04 A3027 RMK A01 T00970044  RH  070%=      5-min Rain = 0
KOD1 140020Z 13007KT 10/04 A3027 RMK A01 T00960044  RH  070%=      5-min Rain = 0
KOD1 140021Z 12007KT 10/04 A3027 RMK A01 T00960044  RH  070%=      5-min Rain = 0
KOD1 140022Z 12007KT 10/04 A3027 RMK A01 T00950044  RH  070%=      5-min Rain = 0
KOD1 140023Z 12008KT 10/05 A3027 RMK A01 T00950045  RH  071%=      5-min Rain = 0
KOD1 140024Z 12008KT 10/05 A3027 RMK A01 T00950045  RH  071%=      5-min Rain = 0
KOD1 140025Z 13008KT 10/04 A3027 RMK A01 T00950044  RH  071%=      5-min Rain = 0
KOD1 140026Z 13008KT 09/05 A3027 RMK A01 T00940045  RH  071%=      5-min Rain = 0
KOD1 140027Z 13008KT 09/05 A3027 RMK A01 T00940045  RH  071%=      5-min Rain = 0
KOD1 140028Z 13008KT 09/05 A3027 RMK A01 T00940045  RH  072%=      5-min Rain = 0
KOD1 140029Z 13007KT 09/05 A3027 RMK A01 T00940045  RH  072%=      5-min Rain = 0
KOD1 140030Z 13008KT 09/05 A3027 RMK A01 T00930045  RH  072%=      5-min Rain = 0
KOD1 140031Z 14008KT 09/05 A3027 RMK A01 T00930046  RH  072%=      5-min Rain = 0
KOD1 140032Z 14008KT 09/05 A3027 RMK A01 T00930045  RH  072%=      5-min Rain = 0
KOD1 140033Z 14008KT 09/05 A3027 RMK A01 T00920045  RH  072%=      5-min Rain = 0
KOD1 140034Z 13008KT 09/05 A3027 RMK A01 T00920045  RH  072%=      5-min Rain = 0
KOD1 140035Z 13007KT 09/04 A3027 RMK A01 T00910044  RH  072%=      5-min Rain = 0
KOD1 140036Z 13008KT 09/04 A3027 RMK A01 T00900044  RH  073%=      5-min Rain = 0
KOD1 140037Z 13008KT 09/05 A3027 RMK A01 T00900045  RH  073%=      5-min Rain = 0
KOD1 140038Z 13008KT 09/05 A3027 RMK A01 T00900045  RH  074%=      5-min Rain = 0
KOD1 140039Z 13007KT 09/04 A3027 RMK A01 T00890044  RH  073%=      5-min Rain = 0
KOD1 140040Z 13007KT 09/04 A3027 RMK A01 T00880044  RH  074%=      5-min Rain = 0
KOD1 140041Z 12007KT 09/04 A3027 RMK A01 T00880044  RH  074%=      5-min Rain = 0
KOD1 140042Z 12008KT 09/05 A3027 RMK A01 T00870045  RH  075%=      5-min Rain = 0
KOD1 140043Z 13008KT 09/05 A3027 RMK A01 T00880046  RH  075%=      5-min Rain = 0
KOD1 140044Z 13009KT 09/05 A3027 RMK A01 T00880046  RH  075%=      5-min Rain = 0
KOD1 140045Z 13009KT 09/05 A3027 RMK A01 T00880046  RH  075%=      5-min Rain = 0
KOD1 140046Z 13009KT 09/05 A3027 RMK A01 T00880046  RH  075%=      5-min Rain = 0
KOD1 140047Z 13009KT 09/05 A3027 RMK A01 T00880046  RH  075%=      5-min Rain = 0
KOD1 140048Z 14009KT 09/05 A3027 RMK A01 T00880046  RH  075%=      5-min Rain = 0
KOD1 140049Z 14008KT 09/05 A3027 RMK A01 T00870045  RH  075%=      5-min Rain = 0
KOD1 140050Z 14009KT 09/05 A3027 RMK A01 T00870045  RH  075%=      5-min Rain = 0
KOD1 140051Z 14009KT 09/05 A3027 RMK A01 T00860045  RH  075%=      5-min Rain = 0
KOD1 140052Z 14009KT 09/05 A3027 RMK A01 T00860045  RH  075%=      5-min Rain = 0
KOD1 140053Z 14008KT 09/05 A3027 RMK A01 T00850045  RH  076%=      5-min Rain = 0
KOD1 140054Z 14008KT 09/05 A3027 RMK A01 T00850045  RH  076%=      5-min Rain = 0
KOD1 140055Z 14009KT 09/05 A3027 RMK A01 T00850045  RH  076%=      5-min Rain = 0
KOD1 140056Z 14009KT 09/05 A3027 RMK A01 T00850046  RH  076%=      5-min Rain = 0
KOD1 140057Z 14008KT 09/05 A3027 RMK A01 T00850045  RH  076%=      5-min Rain = 0
KOD1 140058Z 14007KT 08/05 A3027 RMK A01 T00840045  RH  076%=      5-min Rain = 0
KOD1 140059Z 13007KT 08/04 A3027 RMK A01 T00840044  RH  076%=      5-min Rain = 0
KOD1 140100Z 14008KT 08/05 A3027 RMK A01 T00830045  RH  077%=      5-min Rain = 0
KOD1 140101Z 14008KT 08/05 A3027 RMK A01 T00840046  RH  077%=      5-min Rain = 0
KOD1 140102Z 14007KT 08/05 A3027 RMK A01 T00840046  RH  077%=      5-min Rain = 0
KOD1 140103Z 13008KT 08/05 A3027 RMK A01 T00830045  RH  077%=      5-min Rain = 0
KOD1 140104Z 13008KT 08/05 A3027 RMK A01 T00830045  RH  077%=      5-min Rain = 0
KOD1 140105Z 13008KT 08/05 A3027 RMK A01 T00820045  RH  077%=      5-min Rain = 0
KOD1 140106Z 13007KT 08/05 A3027 RMK A01 T00820045  RH  077%=      5-min Rain = 0
KOD1 140107Z 13007KT 08/04 A3027 RMK A01 T00810044  RH  077%=      5-min Rain = 0
KOD1 140108Z 13007KT 08/04 A3027 RMK A01 T00810044  RH  078%=      5-min Rain = 0
KOD1 140109Z 13007KT 08/04 A3027 RMK A01 T00800044  RH  078%=      5-min Rain = 0
KOD1 140110Z 12007KT 08/05 A3028 RMK A01 T00800045  RH  078%=      5-min Rain = 0
KOD1 140111Z 12007KT 08/05 A3028 RMK A01 T00800045  RH  078%=      5-min Rain = 0
KOD1 140112Z 12006KT 08/04 A3028 RMK A01 T00800044  RH  078%=      5-min Rain = 0
KOD1 140113Z 12006KT 08/04 A3028 RMK A01 T00790044  RH  078%=      5-min Rain = 0
KOD1 140114Z 12005KT 08/04 A3028 RMK A01 T00790043  RH  078%=      5-min Rain = 0
KOD1 140115Z 12007KT 08/04 A3028 RMK A01 T00780044  RH  079%=      5-min Rain = 0
KOD1 140116Z 12006KT 08/04 A3028 RMK A01 T00780044  RH  079%=      5-min Rain = 0
KOD1 140117Z 12006KT 08/04 A3028 RMK A01 T00770043  RH  079%=      5-min Rain = 0
KOD1 140118Z 12007KT 08/04 A3028 RMK A01 T00770043  RH  079%=      5-min Rain = 0
KOD1 140119Z 13008KT 08/04 A3028 RMK A01 T00770044  RH  080%=      5-min Rain = 0
KOD1 140120Z 13007KT 08/05 A3028 RMK A01 T00770045  RH  080%=      5-min Rain = 0
KOD1 140121Z 13007KT 08/04 A3028 RMK A01 T00770044  RH  080%=      5-min Rain = 0
KOD1 140122Z 13007KT 08/05 A3028 RMK A01 T00770045  RH  080%=      5-min Rain = 0
KOD1 140123Z 13008KT 08/04 A3028 RMK A01 T00770044  RH  080%=      5-min Rain = 0
KOD1 140124Z 13007KT 08/04 A3028 RMK A01 T00760044  RH  080%=      5-min Rain = 0
KOD1 140125Z 13008KT 08/04 A3028 RMK A01 T00760044  RH  080%=      5-min Rain = 0
KOD1 140126Z 13008KT 08/04 A3028 RMK A01 T00760044  RH  080%=      5-min Rain = 0
KOD1 140127Z 12007KT 08/04 A3028 RMK A01 T00750044  RH  081%=      5-min Rain = 0
KOD1 140128Z 12007KT 07/04 A3028 RMK A01 T00740044  RH  081%=      5-min Rain = 0
KOD1 140129Z 12007KT 07/04 A3028 RMK A01 T00740043  RH  081%=      5-min Rain = 0
KOD1 140130Z 12007KT 07/04 A3028 RMK A01 T00730043  RH  081%=      5-min Rain = 0
KOD1 140131Z 13007KT 07/04 A3028 RMK A01 T00730044  RH  082%=      5-min Rain = 0
KOD1 140132Z 13008KT 07/04 A3028 RMK A01 T00730044  RH  082%=      5-min Rain = 0
KOD1 140133Z 13008KT 07/05 A3028 RMK A01 T00730045  RH  082%=      5-min Rain = 0
KOD1 140134Z 13008KT 07/05 A3028 RMK A01 T00730045  RH  082%=      5-min Rain = 0
KOD1 140135Z 13007KT 07/05 A3028 RMK A01 T00730045  RH  082%=      5-min Rain = 0
KOD1 140136Z 13008KT 07/05 A3028 RMK A01 T00720045  RH  082%=      5-min Rain = 0
KOD1 140137Z 13008KT 07/04 A3028 RMK A01 T00720044  RH  083%=      5-min Rain = 0
KOD1 140138Z 13008KT 07/04 A3028 RMK A01 T00720044  RH  083%=      5-min Rain = 0
KOD1 140139Z 13007KT 07/04 A3028 RMK A01 T00720044  RH  083%=      5-min Rain = 0
KOD1 140140Z 13008KT 07/04 A3028 RMK A01 T00710044  RH  083%=      5-min Rain = 0
KOD1 140141Z 13008KT 07/04 A3028 RMK A01 T00710044  RH  083%=      5-min Rain = 0
KOD1 140142Z 13008KT 07/04 A3028 RMK A01 T00700044  RH  083%=      5-min Rain = 0
KOD1 140143Z 13008KT 07/04 A3028 RMK A01 T00700044  RH  083%=      5-min Rain = 0
KOD1 140144Z 13008KT 07/04 A3028 RMK A01 T00700044  RH  083%=      5-min Rain = 0
KOD1 140145Z 13008KT 07/04 A3028 RMK A01 T00690043  RH  083%=      5-min Rain = 0
KOD1 140146Z 13009KT 07/04 A3028 RMK A01 T00690044  RH  084%=      5-min Rain = 0
KOD1 140147Z 13008KT 07/04 A3028 RMK A01 T00690044  RH  084%=      5-min Rain = 0
KOD1 140148Z 13008KT 07/04 A3028 RMK A01 T00690044  RH  084%=      5-min Rain = 0
KOD1 140149Z 13008KT 07/04 A3028 RMK A01 T00680044  RH  084%=      5-min Rain = 0
KOD1 140150Z 13007KT 07/04 A3028 RMK A01 T00680044  RH  084%=      5-min Rain = 0
KOD1 140151Z 13008KT 07/04 A3028 RMK A01 T00680044  RH  085%=      5-min Rain = 0
KOD1 140152Z 12008KT 07/04 A3028 RMK A01 T00680044  RH  085%=      5-min Rain = 0
KOD1 140153Z 12008KT 07/04 A3028 RMK A01 T00670043  RH  085%=      5-min Rain = 0
KOD1 140154Z 12007KT 07/04 A3028 RMK A01 T00670043  RH  085%=      5-min Rain = 0
KOD1 140155Z 12008KT 07/04 A3028 RMK A01 T00660043  RH  085%=      5-min Rain = 0
KOD1 140156Z 12008KT 07/04 A3027 RMK A01 T00660043  RH  085%=      5-min Rain = 0
KOD1 140157Z 12008KT 07/04 A3027 RMK A01 T00660042  RH  085%=      5-min Rain = 0
KOD1 140158Z 12007KT 07/04 A3027 RMK A01 T00650042  RH  085%=      5-min Rain = 0
KOD1 140159Z 12008KT 07/04 A3027 RMK A01 T00650042  RH  086%=      5-min Rain = 0
KOD1 140200Z 12008KT 06/04 A3027 RMK A01 T00640042  RH  086%=      5-min Rain = 0
KOD1 140201Z 12007KT 06/04 A3027 RMK A01 T00640042  RH  086%=      5-min Rain = 0
KOD1 140202Z 13007KT 06/04 A3027 RMK A01 T00630041  RH  086%=      5-min Rain = 0
KOD1 140203Z 13006KT 06/04 A3027 RMK A01 T00630041  RH  086%=      5-min Rain = 0
KOD1 140204Z 13007KT 06/04 A3027 RMK A01 T00630042  RH  086%=      5-min Rain = 0
KOD1 140205Z 13008KT 06/04 A3027 RMK A01 T00630042  RH  087%=      5-min Rain = 0
KOD1 140206Z 13008KT 06/04 A3027 RMK A01 T00630043  RH  087%=      5-min Rain = 0
KOD1 140207Z 13008KT 06/04 A3027 RMK A01 T00640044  RH  087%=      5-min Rain = 0
KOD1 140208Z 13008KT 06/04 A3027 RMK A01 T00640044  RH  087%=      5-min Rain = 0
KOD1 140209Z 13008KT 06/04 A3027 RMK A01 T00640043  RH  087%=      5-min Rain = 0
KOD1 140210Z 13008KT 06/04 A3027 RMK A01 T00640043  RH  087%=      5-min Rain = 0
KOD1 140211Z 13008KT 06/04 A3027 RMK A01 T00630043  RH  087%=      5-min Rain = 0
KOD1 140212Z 12008KT 06/04 A3027 RMK A01 T00630043  RH  087%=      5-min Rain = 0
KOD1 140213Z 12007KT 06/04 A3027 RMK A01 T00630043  RH  087%=      5-min Rain = 0
KOD1 140214Z 12007KT 06/04 A3027 RMK A01 T00630043  RH  087%=      5-min Rain = 0
KOD1 140215Z 12008KT 06/04 A3027 RMK A01 T00620043  RH  087%=      5-min Rain = 0
KOD1 140216Z 12008KT 06/04 A3027 RMK A01 T00620042  RH  087%=      5-min Rain = 0
KOD1 140217Z 12007KT 06/04 A3027 RMK A01 T00620042  RH  087%=      5-min Rain = 0
KOD1 140218Z 13008KT 06/04 A3027 RMK A01 T00610042  RH  087%=      5-min Rain = 0
KOD1 140219Z 13007KT 06/04 A3027 RMK A01 T00610042  RH  088%=      5-min Rain = 0
KOD1 140220Z 13009KT 06/04 A3027 RMK A01 T00610043  RH  088%=      5-min Rain = 0
KOD1 140221Z 13008KT 06/04 A3027 RMK A01 T00620044  RH  089%=      5-min Rain = 0
KOD1 140222Z 13007KT 06/04 A3027 RMK A01 T00620044  RH  088%=      5-min Rain = 0
KOD1 140223Z 13007KT 06/04 A3027 RMK A01 T00620044  RH  088%=      5-min Rain = 0
KOD1 140224Z 13008KT 06/04 A3027 RMK A01 T00620044  RH  088%=      5-min Rain = 0
KOD1 140225Z 13008KT 06/04 A3028 RMK A01 T00610043  RH  088%=      5-min Rain = 0
KOD1 140226Z 13008KT 06/04 A3028 RMK A01 T00610043  RH  088%=      5-min Rain = 0
KOD1 140227Z 13008KT 06/04 A3028 RMK A01 T00610043  RH  088%=      5-min Rain = 0
KOD1 140228Z 12007KT 06/04 A3028 RMK A01 T00610043  RH  088%=      5-min Rain = 0
KOD1 140229Z 12007KT 06/04 A3028 RMK A01 T00610043  RH  088%=      5-min Rain = 0
KOD1 140230Z 12007KT 06/04 A3028 RMK A01 T00610043  RH  089%=      5-min Rain = 0
KOD1 140231Z 12006KT 06/04 A3028 RMK A01 T00610043  RH  089%=      5-min Rain = 0
KOD1 140232Z 12007KT 06/04 A3028 RMK A01 T00600042  RH  088%=      5-min Rain = 0
KOD1 140233Z 13007KT 06/04 A3028 RMK A01 T00590042  RH  089%=      5-min Rain = 0
KOD1 140234Z 12007KT 06/04 A3028 RMK A01 T00590042  RH  089%=      5-min Rain = 0
KOD1 140235Z 12007KT 06/04 A3028 RMK A01 T00590042  RH  089%=      5-min Rain = 0
KOD1 140236Z 12007KT 06/04 A3028 RMK A01 T00580041  RH  089%=      5-min Rain = 0
KOD1 140237Z 12007KT 06/04 A3028 RMK A01 T00580041  RH  089%=      5-min Rain = 0
KOD1 140238Z 12007KT 06/04 A3028 RMK A01 T00580042  RH  089%=      5-min Rain = 0
KOD1 140239Z 12007KT 06/04 A3028 RMK A01 T00580042  RH  090%=      5-min Rain = 0
KOD1 140240Z 12007KT 06/04 A3028 RMK A01 T00580042  RH  089%=      5-min Rain = 0
KOD1 140241Z 12007KT 06/04 A3028 RMK A01 T00570041  RH  090%=      5-min Rain = 0
KOD1 140242Z 12006KT 06/04 A3028 RMK A01 T00570041  RH  090%=      5-min Rain = 0
KOD1 140243Z 13007KT 06/04 A3028 RMK A01 T00570042  RH  090%=      5-min Rain = 0
KOD1 140244Z 13006KT 06/04 A3028 RMK A01 T00570041  RH  090%=      5-min Rain = 0
KOD1 140245Z 13007KT 06/04 A3028 RMK A01 T00560041  RH  090%=      5-min Rain = 0
KOD1 140246Z 13007KT 06/04 A3028 RMK A01 T00560041  RH  090%=      5-min Rain = 0
KOD1 140247Z 13007KT 06/04 A3028 RMK A01 T00570042  RH  090%=      5-min Rain = 0
KOD1 140248Z 13007KT 06/04 A3028 RMK A01 T00570042  RH  090%=      5-min Rain = 0
KOD1 140249Z 13008KT 06/04 A3028 RMK A01 T00570042  RH  090%=      5-min Rain = 0
KOD1 140250Z 13008KT 06/04 A3028 RMK A01 T00570042  RH  090%=      5-min Rain = 0
KOD1 140251Z 13008KT 06/04 A3028 RMK A01 T00560042  RH  090%=      5-min Rain = 0
KOD1 140252Z 13008KT 06/04 A3028 RMK A01 T00560041  RH  090%=      5-min Rain = 0
KOD1 140253Z 12007KT 06/04 A3028 RMK A01 T00560041  RH  090%=      5-min Rain = 0
KOD1 140254Z 12008KT 06/04 A3028 RMK A01 T00550041  RH  091%=      5-min Rain = 0
KOD1 140255Z 12008KT 06/04 A3028 RMK A01 T00550041  RH  091%=      5-min Rain = 0
KOD1 140256Z 12008KT 06/04 A3028 RMK A01 T00550041  RH  091%=      5-min Rain = 0
KOD1 140257Z 12008KT 05/04 A3028 RMK A01 T00540041  RH  091%=      5-min Rain = 0
KOD1 140258Z 12007KT 05/04 A3028 RMK A01 T00540040  RH  091%=      5-min Rain = 0
KOD1 140259Z 12008KT 05/04 A3028 RMK A01 T00540040  RH  091%=      5-min Rain = 0
KOD1 140300Z 13008KT 05/04 A3028 RMK A01 T00530040  RH  091%=      5-min Rain = 0
KOD1 140301Z 13008KT 05/04 A3028 RMK A01 T00530040  RH  091%=      5-min Rain = 0
KOD1 140302Z 13008KT 05/04 A3028 RMK A01 T00540041  RH  092%=      5-min Rain = 0
KOD1 140303Z 13008KT 05/04 A3028 RMK A01 T00530041  RH  091%=      5-min Rain = 0
KOD1 140304Z 12008KT 05/04 A3028 RMK A01 T00530040  RH  091%=      5-min Rain = 0
KOD1 140305Z 12008KT 05/04 A3028 RMK A01 T00520039  RH  091%=      5-min Rain = 0
KOD1 140306Z 12008KT 05/04 A3028 RMK A01 T00520040  RH  092%=      5-min Rain = 0
KOD1 140307Z 12008KT 05/04 A3028 RMK A01 T00520039  RH  092%=      5-min Rain = 0
KOD1 140308Z 12008KT 05/04 A3028 RMK A01 T00520040  RH  092%=      5-min Rain = 0
KOD1 140309Z 11007KT 05/04 A3028 RMK A01 T00520040  RH  092%=      5-min Rain = 0
KOD1 140310Z 11007KT 05/04 A3028 RMK A01 T00510039  RH  092%=      5-min Rain = 0
KOD1 140311Z 11008KT 05/04 A3028 RMK A01 T00510038  RH  092%=      5-min Rain = 0
KOD1 140312Z 11007KT 05/04 A3028 RMK A01 T00510039  RH  092%=      5-min Rain = 0
KOD1 140313Z 11007KT 05/04 A3028 RMK A01 T00500039  RH  092%=      5-min Rain = 0
KOD1 140314Z 12007KT 05/04 A3028 RMK A01 T00500038  RH  092%=      5-min Rain = 0
KOD1 140315Z 12007KT 05/04 A3028 RMK A01 T00500038  RH  092%=      5-min Rain = 0
KOD1 140316Z 12007KT 05/04 A3028 RMK A01 T00500038  RH  092%=      5-min Rain = 0
KOD1 140317Z 12006KT 05/04 A3028 RMK A01 T00490038  RH  092%=      5-min Rain = 0
KOD1 140318Z 13005KT 05/04 A3028 RMK A01 T00490037  RH  092%=      5-min Rain = 0
KOD1 140319Z 12006KT 05/04 A3028 RMK A01 T00480037  RH  092%=      5-min Rain = 0
KOD1 140320Z 12006KT 05/04 A3028 RMK A01 T00480037  RH  092%=      5-min Rain = 0
KOD1 140321Z 11006KT 05/04 A3029 RMK A01 T00480037  RH  092%=      5-min Rain = 0
KOD1 140322Z 11007KT 05/04 A3029 RMK A01 T00480036  RH  093%=      5-min Rain = 0
KOD1 140323Z 11006KT 05/04 A3029 RMK A01 T00470036  RH  093%=      5-min Rain = 0
KOD1 140324Z 11007KT 05/04 A3029 RMK A01 T00470036  RH  093%=      5-min Rain = 0
KOD1 140325Z 11006KT 05/04 A3029 RMK A01 T00460035  RH  093%=      5-min Rain = 0
KOD1 140326Z 11007KT 05/04 A3029 RMK A01 T00460035  RH  093%=      5-min Rain = 0
KOD1 140327Z 11006KT 05/04 A3029 RMK A01 T00450035  RH  093%=      5-min Rain = 0
KOD1 140328Z 11006KT 05/04 A3029 RMK A01 T00450035  RH  093%=      5-min Rain = 0
KOD1 140329Z 12008KT 05/04 A3029 RMK A01 T00450035  RH  093%=      5-min Rain = 0
KOD1 140330Z 11007KT 05/04 A3029 RMK A01 T00450036  RH  094%=      5-min Rain = 0
KOD1 140331Z 11006KT 05/04 A3029 RMK A01 T00450036  RH  094%=      5-min Rain = 0
KOD1 140332Z 11007KT 05/04 A3029 RMK A01 T00450036  RH  094%=      5-min Rain = 0
KOD1 140333Z 11007KT 05/04 A3028 RMK A01 T00450035  RH  094%=      5-min Rain = 0
KOD1 140334Z 11007KT 05/04 A3028 RMK A01 T00450036  RH  094%=      5-min Rain = 0
KOD1 140335Z 12006KT 05/04 A3028 RMK A01 T00460037  RH  094%=      5-min Rain = 0
KOD1 140336Z 11006KT 05/04 A3028 RMK A01 T00450036  RH  094%=      5-min Rain = 0
KOD1 140337Z 11007KT 05/04 A3028 RMK A01 T00450035  RH  094%=      5-min Rain = 0
KOD1 140338Z 10006KT 04/04 A3028 RMK A01 T00440035  RH  094%=      5-min Rain = 0
KOD1 140339Z 11006KT 04/03 A3028 RMK A01 T00440034  RH  093%=      5-min Rain = 0
KOD1 140340Z 11006KT 04/03 A3028 RMK A01 T00430033  RH  093%=      5-min Rain = 0
KOD1 140341Z 12007KT 04/03 A3028 RMK A01 T00420032  RH  093%=      5-min Rain = 0
KOD1 140342Z 12007KT 04/03 A3028 RMK A01 T00420032  RH  094%=      5-min Rain = 0
KOD1 140343Z 12008KT 04/03 A3028 RMK A01 T00420033  RH  094%=      5-min Rain = 0
KOD1 140344Z 12007KT 04/03 A3028 RMK A01 T00420034  RH  094%=      5-min Rain = 0
KOD1 140345Z 12008KT 04/04 A3028 RMK A01 T00430035  RH  095%=      5-min Rain = 0
KOD1 140346Z 13007KT 04/04 A3028 RMK A01 T00440037  RH  095%=      5-min Rain = 0
KOD1 140347Z 12007KT 05/04 A3028 RMK A01 T00450038  RH  095%=      5-min Rain = 0
KOD1 140348Z 12007KT 05/04 A3028 RMK A01 T00460039  RH  095%=      5-min Rain = 0
KOD1 140349Z 12007KT 05/04 A3028 RMK A01 T00470039  RH  095%=      5-min Rain = 0
KOD1 140350Z 12007KT 05/04 A3028 RMK A01 T00470039  RH  095%=      5-min Rain = 0
KOD1 140351Z 12007KT 05/04 A3028 RMK A01 T00470039  RH  095%=      5-min Rain = 0
KOD1 140352Z 13007KT 05/04 A3028 RMK A01 T00470039  RH  095%=      5-min Rain = 0
KOD1 140353Z 12006KT 05/04 A3028 RMK A01 T00460038  RH  094%=      5-min Rain = 0
KOD1 140354Z 12007KT 05/04 A3028 RMK A01 T00460038  RH  094%=      5-min Rain = 0
KOD1 140355Z 12008KT 05/04 A3028 RMK A01 T00460037  RH  094%=      5-min Rain = 0
KOD1 140356Z 12007KT 05/04 A3028 RMK A01 T00450036  RH  094%=      5-min Rain = 0
KOD1 140357Z 12007KT 04/04 A3028 RMK A01 T00440035  RH  094%=      5-min Rain = 0
KOD1 140358Z 12008KT 04/03 A3028 RMK A01 T00430034  RH  094%=      5-min Rain = 0
KOD1 140359Z 13009KT 04/03 A3028 RMK A01 T00420033  RH  094%=      5-min Rain = 0
KOD1 140400Z 13008KT 04/03 A3028 RMK A01 T00420033  RH  094%=      5-min Rain = 0
KOD1 140401Z 13008KT 04/03 A3028 RMK A01 T00420034  RH  095%=      5-min Rain = 0
KOD1 140402Z 13009KT 04/03 A3028 RMK A01 T00420034  RH  095%=      5-min Rain = 0
KOD1 140403Z 13009KT 04/04 A3028 RMK A01 T00420035  RH  095%=      5-min Rain = 0
KOD1 140404Z 13010KT 04/04 A3028 RMK A01 T00420035  RH  095%=      5-min Rain = 0
KOD1 140405Z 14010KT 04/04 A3028 RMK A01 T00430036  RH  095%=      5-min Rain = 0
KOD1 140406Z 13010KT 04/04 A3028 RMK A01 T00440038  RH  096%=      5-min Rain = 0
KOD1 140407Z 13009KT 05/04 A3028 RMK A01 T00450038  RH  096%=      5-min Rain = 0
KOD1 140408Z 13010KT 05/04 A3028 RMK A01 T00450039  RH  096%=      5-min Rain = 0
KOD1 140409Z 13009KT 05/04 A3028 RMK A01 T00460039  RH  096%=      5-min Rain = 0
KOD1 140410Z 13009KT 05/04 A3028 RMK A01 T00450039  RH  095%=      5-min Rain = 0
KOD1 140411Z 12008KT 05/04 A3028 RMK A01 T00450037  RH  095%=      5-min Rain = 0
KOD1 140412Z 12008KT 04/04 A3027 RMK A01 T00440036  RH  095%=      5-min Rain = 0
KOD1 140413Z 12009KT 04/04 A3027 RMK A01 T00430036  RH  095%=      5-min Rain = 0
KOD1 140414Z 12009KT 04/04 A3028 RMK A01 T00430036  RH  095%=      5-min Rain = 0
KOD1 140415Z 13008KT 04/04 A3028 RMK A01 T00430036  RH  095%=      5-min Rain = 0
KOD1 140416Z 13008KT 04/04 A3027 RMK A01 T00430036  RH  095%=      5-min Rain = 0
KOD1 140417Z 13008KT 04/04 A3027 RMK A01 T00430036  RH  095%=      5-min Rain = 0
KOD1 140418Z 13008KT 04/04 A3027 RMK A01 T00430037  RH  095%=      5-min Rain = 0
KOD1 140419Z 13009KT 04/04 A3027 RMK A01 T00430037  RH  095%=      5-min Rain = 0
KOD1 140420Z 13009KT 04/04 A3027 RMK A01 T00430037  RH  095%=      5-min Rain = 0
KOD1 140421Z 13008KT 04/04 A3027 RMK A01 T00430036  RH  095%=      5-min Rain = 0
KOD1 140422Z 13009KT 04/04 A3027 RMK A01 T00430036  RH  095%=      5-min Rain = 0
KOD1 140423Z 13009KT 04/04 A3027 RMK A01 T00430036  RH  095%=      5-min Rain = 0
KOD1 140424Z 13008KT 04/04 A3027 RMK A01 T00430037  RH  096%=      5-min Rain = 0
KOD1 140425Z 13008KT 04/04 A3027 RMK A01 T00430036  RH  096%=      5-min Rain = 0
KOD1 140426Z 13008KT 04/04 A3027 RMK A01 T00430036  RH  095%=      5-min Rain = 0
KOD1 140427Z 13008KT 04/04 A3027 RMK A01 T00430036  RH  096%=      5-min Rain = 0
KOD1 140428Z 13009KT 04/04 A3027 RMK A01 T00430037  RH  096%=      5-min Rain = 0
KOD1 140429Z 12007KT 04/04 A3027 RMK A01 T00430037  RH  096%=      5-min Rain = 0
KOD1 140430Z 12008KT 04/04 A3027 RMK A01 T00430037  RH  096%=      5-min Rain = 0
KOD1 140431Z 13007KT 04/04 A3027 RMK A01 T00420036  RH  096%=      5-min Rain = 0
KOD1 140432Z 12007KT 04/04 A3027 RMK A01 T00420035  RH  095%=      5-min Rain = 0
KOD1 140433Z 12007KT 04/03 A3027 RMK A01 T00410034  RH  095%=      5-min Rain = 0
KOD1 140434Z 12008KT 04/03 A3027 RMK A01 T00400033  RH  095%=      5-min Rain = 0
KOD1 140435Z 12007KT 04/03 A3027 RMK A01 T00400033  RH  095%=      5-min Rain = 0
KOD1 140436Z 13007KT 04/03 A3027 RMK A01 T00400033  RH  096%=      5-min Rain = 0
KOD1 140437Z 12007KT 04/03 A3027 RMK A01 T00390033  RH  096%=      5-min Rain = 0
KOD1 140438Z 13007KT 04/03 A3027 RMK A01 T00390033  RH  096%=      5-min Rain = 0
KOD1 140439Z 12007KT 04/03 A3027 RMK A01 T00390033  RH  096%=      5-min Rain = 0
KOD1 140440Z 12007KT 04/03 A3027 RMK A01 T00390033  RH  096%=      5-min Rain = 0
KOD1 140441Z 12007KT 04/03 A3027 RMK A01 T00390033  RH  096%=      5-min Rain = 0
KOD1 140442Z 12007KT 04/03 A3027 RMK A01 T00390033  RH  096%=      5-min Rain = 0
KOD1 140443Z 12007KT 04/03 A3027 RMK A01 T00380032  RH  096%=      5-min Rain = 0
KOD1 140444Z 12007KT 04/03 A3027 RMK A01 T00380032  RH  096%=      5-min Rain = 0
KOD1 140445Z 12007KT 04/03 A3027 RMK A01 T00380031  RH  096%=      5-min Rain = 0
KOD1 140446Z 12007KT 04/03 A3027 RMK A01 T00370031  RH  096%=      5-min Rain = 0
KOD1 140447Z 12007KT 04/03 A3027 RMK A01 T00370032  RH  096%=      5-min Rain = 0
KOD1 140448Z 13007KT 04/03 A3027 RMK A01 T00380032  RH  096%=      5-min Rain = 0
KOD1 140449Z 13007KT 04/03 A3026 RMK A01 T00380032  RH  096%=      5-min Rain = 0
KOD1 140450Z 12006KT 04/03 A3026 RMK A01 T00380033  RH  096%=      5-min Rain = 0
KOD1 140451Z 13007KT 04/03 A3026 RMK A01 T00380033  RH  096%=      5-min Rain = 0
KOD1 140452Z 13007KT 04/03 A3026 RMK A01 T00380033  RH  096%=      5-min Rain = 0
KOD1 140453Z 13007KT 04/03 A3026 RMK A01 T00380033  RH  096%=      5-min Rain = 0
KOD1 140454Z 13007KT 04/03 A3026 RMK A01 T00380033  RH  096%=      5-min Rain = 0
KOD1 140455Z 13007KT 04/03 A3026 RMK A01 T00380033  RH  096%=      5-min Rain = 0
KOD1 140456Z 13007KT 04/03 A3026 RMK A01 T00380033  RH  097%=      5-min Rain = 0
KOD1 140457Z 13007KT 04/03 A3026 RMK A01 T00380032  RH  097%=      5-min Rain = 0
KOD1 140458Z 13008KT 04/03 A3026 RMK A01 T00380033  RH  097%=      5-min Rain = 0
KOD1 140459Z 13007KT 04/03 A3027 RMK A01 T00380033  RH  097%=      5-min Rain = 0
KOD1 140500Z 12007KT 04/03 A3027 RMK A01 T00380033  RH  097%=      5-min Rain = 0
KOD1 140501Z 13007KT 04/03 A3027 RMK A01 T00380033  RH  097%=      5-min Rain = 0
KOD1 140502Z 13007KT 04/03 A3027 RMK A01 T00380033  RH  097%=      5-min Rain = 0
KOD1 140503Z 13007KT 04/03 A3027 RMK A01 T00380033  RH  097%=      5-min Rain = 0
KOD1 140504Z 13007KT 04/03 A3027 RMK A01 T00380034  RH  097%=      5-min Rain = 0
KOD1 140505Z 13006KT 04/03 A3027 RMK A01 T00380033  RH  097%=      5-min Rain = 0
KOD1 140506Z 13007KT 04/03 A3027 RMK A01 T00380033  RH  097%=      5-min Rain = 0
KOD1 140507Z 13008KT 04/03 A3027 RMK A01 T00370033  RH  097%=      5-min Rain = 0
KOD1 140508Z 13007KT 04/03 A3027 RMK A01 T00370032  RH  097%=      5-min Rain = 0
KOD1 140509Z 13007KT 04/03 A3026 RMK A01 T00360031  RH  097%=      5-min Rain = 0
KOD1 140510Z 13006KT 04/03 A3026 RMK A01 T00360031  RH  097%=      5-min Rain = 0
KOD1 140511Z 13006KT 04/03 A3026 RMK A01 T00360031  RH  097%=      5-min Rain = 0
KOD1 140512Z 13006KT 04/03 A3026 RMK A01 T00350030  RH  097%=      5-min Rain = 0
KOD1 140513Z 13007KT 04/03 A3026 RMK A01 T00350031  RH  097%=      5-min Rain = 0
KOD1 140514Z 13007KT 04/03 A3026 RMK A01 T00360031  RH  097%=      5-min Rain = 0
KOD1 140515Z 13007KT 04/03 A3026 RMK A01 T00360031  RH  097%=      5-min Rain = 0
KOD1 140516Z 13007KT 04/03 A3026 RMK A01 T00360032  RH  097%=      5-min Rain = 0
KOD1 140517Z 13008KT 04/03 A3026 RMK A01 T00360032  RH  097%=      5-min Rain = 0
KOD1 140518Z 13007KT 04/03 A3026 RMK A01 T00360032  RH  097%=      5-min Rain = 0
KOD1 140519Z 13009KT 04/03 A3026 RMK A01 T00370033  RH  097%=      5-min Rain = 0
KOD1 140520Z 13008KT 04/03 A3026 RMK A01 T00380034  RH  098%=      5-min Rain = 0
KOD1 140521Z 14008KT 04/04 A3026 RMK A01 T00380035  RH  098%=      5-min Rain = 0
KOD1 140522Z 14008KT 04/04 A3026 RMK A01 T00390036  RH  098%=      5-min Rain = 0
KOD1 140523Z 14009KT 04/04 A3026 RMK A01 T00390036  RH  098%=      5-min Rain = 0
KOD1 140524Z 13009KT 04/04 A3026 RMK A01 T00390036  RH  097%=      5-min Rain = 0
KOD1 140525Z 13008KT 04/04 A3026 RMK A01 T00390035  RH  097%=      5-min Rain = 0
KOD1 140526Z 13008KT 04/03 A3026 RMK A01 T00380034  RH  097%=      5-min Rain = 0
KOD1 140527Z 13009KT 04/03 A3026 RMK A01 T00380034  RH  097%=      5-min Rain = 0
KOD1 140528Z 14009KT 04/03 A3026 RMK A01 T00380034  RH  097%=      5-min Rain = 0
KOD1 140529Z 13007KT 04/03 A3026 RMK A01 T00380033  RH  097%=      5-min Rain = 0
KOD1 140530Z 13007KT 04/03 A3026 RMK A01 T00370033  RH  097%=      5-min Rain = 0
KOD1 140531Z 13009KT 04/03 A3026 RMK A01 T00360032  RH  097%=      5-min Rain = 0
KOD1 140532Z 13008KT 04/03 A3026 RMK A01 T00350031  RH  097%=      5-min Rain = 0
KOD1 140533Z 13009KT 04/03 A3026 RMK A01 T00350031  RH  097%=      5-min Rain = 0
KOD1 140534Z 13009KT 04/03 A3025 RMK A01 T00350031  RH  097%=      5-min Rain = 0
KOD1 140535Z 14009KT 04/03 A3025 RMK A01 T00350031  RH  097%=      5-min Rain = 0
KOD1 140536Z 13009KT 04/03 A3025 RMK A01 T00350031  RH  097%=      5-min Rain = 0
KOD1 140537Z 14008KT 04/03 A3025 RMK A01 T00350031  RH  097%=      5-min Rain = 0
KOD1 140538Z 15008KT 04/03 A3025 RMK A01 T00350031  RH  097%=      5-min Rain = 0
KOD1 140539Z 14009KT 04/03 A3025 RMK A01 T00350032  RH  098%=      5-min Rain = 0
KOD1 140540Z 14009KT 04/03 A3025 RMK A01 T00360032  RH  098%=      5-min Rain = 0
KOD1 140541Z 14010KT 04/03 A3025 RMK A01 T00360033  RH  098%=      5-min Rain = 0
KOD1 140542Z 14008KT 04/03 A3025 RMK A01 T00360032  RH  098%=      5-min Rain = 0
KOD1 140543Z 14008KT 04/03 A3025 RMK A01 T00350032  RH  098%=      5-min Rain = 0
KOD1 140544Z 14008KT 04/03 A3025 RMK A01 T00350032  RH  098%=      5-min Rain = 0
KOD1 140545Z 14007KT 04/03 A3025 RMK A01 T00350032  RH  098%=      5-min Rain = 0
KOD1 140546Z 14008KT 04/03 A3025 RMK A01 T00360032  RH  098%=      5-min Rain = 0
KOD1 140547Z 13007KT 04/03 A3025 RMK A01 T00360033  RH  098%=      5-min Rain = 0
KOD1 140548Z 14009KT 04/03 A3025 RMK A01 T00370034  RH  098%=      5-min Rain = 0
KOD1 140549Z 13007KT 04/04 A3025 RMK A01 T00380036  RH  098%=      5-min Rain = 0
KOD1 140550Z 14008KT 04/04 A3025 RMK A01 T00390036  RH  098%=      5-min Rain = 0
KOD1 140551Z 13008KT 04/04 A3025 RMK A01 T00390036  RH  098%=      5-min Rain = 0
KOD1 140552Z 13007KT 04/04 A3025 RMK A01 T00390036  RH  098%=      5-min Rain = 0
KOD1 140553Z 13007KT 04/04 A3025 RMK A01 T00390036  RH  098%=      5-min Rain = 0
KOD1 140554Z 13008KT 04/04 A3024 RMK A01 T00390036  RH  098%=      5-min Rain = 0
KOD1 140555Z 13007KT 04/04 A3024 RMK A01 T00390036  RH  098%=      5-min Rain = 0
KOD1 140556Z 13008KT 04/04 A3024 RMK A01 T00400036  RH  098%=      5-min Rain = 0
KOD1 140557Z 13008KT 04/04 A3024 RMK A01 T00400037  RH  098%=      5-min Rain = 0
KOD1 140558Z 13009KT 04/04 A3025 RMK A01 T00410038  RH  098%=      5-min Rain = 0
KOD1 140559Z 13009KT 04/04 A3025 RMK A01 T00410038  RH  098%=      5-min Rain = 0

Page generated in 0.103 seconds.